FDX5434 KMEM-RKSI

Flight info

Callsign FDX5434
Flight time 14h 44m
Altitude 26000
Route JTEEE5 ODATE DCT KK51I DCT KP66G DCT KP81E DCT ABR/N0484F280 DCT MOT Q971 DURUR DCT 52N108W 53N111W DCT RESAX DCT TETAG DCT YQU DCT 56N122W 57N125W 58N130W/N0491F300 DCT MITOM DCT DEEJA DCT YAK DCT 60N142W 61N148W DCT TED DCT NODLE R220 NAYLD/N0488F320 R220 NUZAN/N0490F330 R220 NUBDA/N0489F340 R220 NODAN R217 GTC Y142 SAMON Y14 SUGNO Y16 SAPRA Y685 GUKDO GUKDO2E
Aircraft B77L/H-SDE1E2E3FGHIJ2J3J4J5M1RWXY/LB1D1

Departure

Time 2026-05-07 03:42
Airport Memphis International Airport (KMEM)

Arrival

Time 2026-05-07 18:26
Airport Incheon International Airport (RKSI)
Time Latitude Longitude Altitude Speed Heading
2026-05-07 02:59 35.05982 -89.96121 335 ft 0 kts 181°
2026-05-07 03:00 35.05976 -89.96121 335 ft 0 kts 181°
2026-05-07 03:24 35.05979 -89.96121 335 ft 2 kts 181°
2026-05-07 03:25 35.05997 -89.96121 330 ft 3 kts 181°
2026-05-07 03:25 35.06017 -89.96121 330 ft 3 kts 185°
2026-05-07 03:25 35.06033 -89.96116 330 ft 3 kts 233°
2026-05-07 03:25 35.06038 -89.96101 330 ft 1 kts 272°
2026-05-07 03:26 35.06038 -89.96084 330 ft 3 kts 272°
2026-05-07 03:26 35.06037 -89.96066 330 ft 1 kts 272°
2026-05-07 03:26 35.06037 -89.96065 330 ft 0 kts 272°
2026-05-07 03:29 35.06037 -89.96077 330 ft 4 kts 272°
2026-05-07 03:29 35.06039 -89.96150 330 ft 13 kts 272°
2026-05-07 03:29 35.06043 -89.96270 335 ft 15 kts 272°
2026-05-07 03:30 35.06047 -89.96398 335 ft 15 kts 273°
2026-05-07 03:30 35.06008 -89.96506 330 ft 15 kts 212°
2026-05-07 03:30 35.05927 -89.96581 329 ft 15 kts 238°
2026-05-07 03:30 35.05920 -89.96705 331 ft 15 kts 272°
2026-05-07 03:31 35.05924 -89.96830 331 ft 15 kts 272°
2026-05-07 03:31 35.05927 -89.96956 335 ft 15 kts 272°
2026-05-07 03:31 35.05931 -89.97081 334 ft 15 kts 272°
2026-05-07 03:31 35.05934 -89.97205 334 ft 15 kts 272°
2026-05-07 03:32 35.05938 -89.97332 330 ft 15 kts 272°
2026-05-07 03:32 35.05940 -89.97446 335 ft 9 kts 265°
2026-05-07 03:32 35.05904 -89.97498 330 ft 9 kts 195°
2026-05-07 03:32 35.05842 -89.97485 333 ft 10 kts 167°
2026-05-07 03:33 35.05768 -89.97485 333 ft 12 kts 183°
2026-05-07 03:33 35.05679 -89.97489 330 ft 14 kts 182°
2026-05-07 03:33 35.05580 -89.97488 331 ft 15 kts 178°
2026-05-07 03:33 35.05478 -89.97485 330 ft 16 kts 179°
2026-05-07 03:34 35.05352 -89.97482 329 ft 18 kts 179°
2026-05-07 03:34 35.05226 -89.97480 329 ft 18 kts 179°
2026-05-07 03:34 35.05098 -89.97477 329 ft 18 kts 179°
2026-05-07 03:34 35.04970 -89.97474 329 ft 18 kts 179°
2026-05-07 03:35 35.04841 -89.97471 329 ft 18 kts 179°
2026-05-07 03:35 35.04713 -89.97468 329 ft 18 kts 179°
2026-05-07 03:35 35.04585 -89.97466 330 ft 18 kts 179°
2026-05-07 03:35 35.04457 -89.97463 330 ft 18 kts 179°
2026-05-07 03:36 35.04329 -89.97460 331 ft 18 kts 179°
2026-05-07 03:36 35.04244 -89.97458 331 ft 18 kts 179°
2026-05-07 03:36 35.04075 -89.97455 330 ft 18 kts 179°
2026-05-07 03:36 35.03947 -89.97452 329 ft 18 kts 179°
2026-05-07 03:37 35.03818 -89.97450 328 ft 18 kts 179°
2026-05-07 03:37 35.03691 -89.97447 327 ft 18 kts 179°
2026-05-07 03:37 35.03562 -89.97444 329 ft 18 kts 179°
2026-05-07 03:37 35.03434 -89.97442 329 ft 18 kts 179°
2026-05-07 03:38 35.03350 -89.97440 329 ft 18 kts 179°
2026-05-07 03:38 35.03221 -89.97437 329 ft 18 kts 179°
2026-05-07 03:38 35.03093 -89.97433 330 ft 18 kts 179°
2026-05-07 03:38 35.02966 -89.97431 330 ft 18 kts 180°
2026-05-07 03:39 35.02796 -89.97428 328 ft 18 kts 179°
2026-05-07 03:39 35.02668 -89.97426 331 ft 18 kts 179°
2026-05-07 03:39 35.02547 -89.97423 327 ft 16 kts 179°
2026-05-07 03:39 35.02456 -89.97423 330 ft 11 kts 190°
2026-05-07 03:40 35.02420 -89.97464 327 ft 11 kts 251°
2026-05-07 03:40 35.02444 -89.97546 327 ft 11 kts 333°
2026-05-07 03:40 35.02497 -89.97556 327 ft 0 kts 359°
2026-05-07 03:41 35.02681 -89.97560 328 ft 62 kts 359°
2026-05-07 03:41 35.03363 -89.97571 323 ft 132 kts 358°
2026-05-07 03:41 35.04498 -89.97596 333 ft 191 kts 359°
2026-05-07 03:41 35.05862 -89.97633 709 ft 196 kts
2026-05-07 03:42 35.07241 -89.97688 1297 ft 199 kts 359°
2026-05-07 03:42 35.08620 -89.97759 2009 ft 196 kts
2026-05-07 03:42 35.10009 -89.98070 2235 ft 212 kts 347°
2026-05-07 03:42 35.11422 -89.98591 2529 ft 216 kts 348°
2026-05-07 03:43 35.12888 -89.99084 2858 ft 221 kts 348°
2026-05-07 03:43 35.14407 -89.99576 3163 ft 231 kts 349°
2026-05-07 03:43 35.16014 -89.99948 3509 ft 238 kts 353°
2026-05-07 03:43 35.17689 -90.00261 3775 ft 252 kts 353°
2026-05-07 03:44 35.19461 -90.00596 4112 ft 262 kts 352°
2026-05-07 03:44 35.21285 -90.00948 4579 ft 269 kts 350°
2026-05-07 03:44 35.23157 -90.01270 5050 ft 275 kts 353°
2026-05-07 03:44 35.25095 -90.01417 5509 ft 283 kts 355°
2026-05-07 03:45 35.27068 -90.01511 6052 ft 287 kts 354°
2026-05-07 03:45 35.29052 -90.01603 6500 ft 294 kts 353°
2026-05-07 03:45 35.31102 -90.01705 7001 ft 297 kts 352°
2026-05-07 03:45 35.33168 -90.01813 7573 ft 298 kts 352°
2026-05-07 03:46 35.35243 -90.01927 8127 ft 300 kts 351°
2026-05-07 03:46 35.37330 -90.02046 8653 ft 302 kts 351°
2026-05-07 03:46 35.39441 -90.02170 9181 ft 305 kts 351°
2026-05-07 03:46 35.41368 -90.02284 9660 ft 307 kts 350°
2026-05-07 03:47 35.43509 -90.02413 10139 ft 310 kts 350°
2026-05-07 03:47 35.45713 -90.02550 10322 ft 326 kts 350°
2026-05-07 03:47 35.48003 -90.02695 10462 ft 342 kts 350°
2026-05-07 03:47 35.50436 -90.02846 10611 ft 360 kts 350°
2026-05-07 03:48 35.52996 -90.03000 10810 ft 375 kts 350°
2026-05-07 03:48 35.55636 -90.03154 11200 ft 384 kts 350°
2026-05-07 03:48 35.58321 -90.03311 11670 ft 390 kts 350°
2026-05-07 03:48 35.61049 -90.03473 12234 ft 394 kts 350°
2026-05-07 03:49 35.63798 -90.03643 12802 ft 396 kts 349°
2026-05-07 03:49 35.66559 -90.03871 13355 ft 399 kts 348°
2026-05-07 03:49 35.69345 -90.04126 13876 ft 404 kts 347°
2026-05-07 03:49 35.72123 -90.04377 14348 ft 407 kts 347°
2026-05-07 03:50 35.74956 -90.04625 14830 ft 411 kts 347°
2026-05-07 03:50 35.77789 -90.04970 15264 ft 405 kts 339°
2026-05-07 03:50 35.80345 -90.06187 15545 ft 386 kts 320°
2026-05-07 03:50 35.82637 -90.07928 15877 ft 390 kts 320°
2026-05-07 03:51 35.84998 -90.09638 16351 ft 395 kts 321°
2026-05-07 03:51 35.87401 -90.11323 16901 ft 397 kts 321°
2026-05-07 03:51 35.89810 -90.12993 17398 ft 400 kts 321°
2026-05-07 03:51 35.92220 -90.14658 17852 ft 403 kts 321°
2026-05-07 03:52 35.94677 -90.16355 18315 ft 406 kts 321°
2026-05-07 03:52 35.97154 -90.18067 18727 ft 409 kts 320°
2026-05-07 03:52 35.99642 -90.19787 19182 ft 410 kts 320°
2026-05-07 03:52 36.02136 -90.21511 19651 ft 411 kts 320°
2026-05-07 03:53 36.04636 -90.23242 20103 ft 412 kts 320°
2026-05-07 03:53 36.07143 -90.24981 20528 ft 414 kts 320°
2026-05-07 03:53 36.09662 -90.26731 20944 ft 416 kts 319°
2026-05-07 03:53 36.12190 -90.28489 21365 ft 418 kts 319°
2026-05-07 03:54 36.14735 -90.30259 21795 ft 419 kts 319°
2026-05-07 03:54 36.17283 -90.32034 22194 ft 421 kts 319°
2026-05-07 03:54 36.19841 -90.33816 22605 ft 423 kts 319°
2026-05-07 03:54 36.22404 -90.35603 22997 ft 425 kts 319°
2026-05-07 03:55 36.24983 -90.37403 23426 ft 426 kts 318°
2026-05-07 03:55 36.27575 -90.39211 23850 ft 427 kts 318°
2026-05-07 03:55 36.30128 -90.40995 24184 ft 427 kts 317°
2026-05-07 03:55 36.32728 -90.42813 24518 ft 429 kts 317°
2026-05-07 03:56 36.35336 -90.44639 24832 ft 431 kts 317°
2026-05-07 03:56 36.37960 -90.46478 25144 ft 433 kts 317°
2026-05-07 03:56 36.40587 -90.48320 25484 ft 434 kts 317°
2026-05-07 03:56 36.43216 -90.50165 25794 ft 436 kts 317°
2026-05-07 03:57 36.45878 -90.52036 25997 ft 440 kts 317°
2026-05-07 03:57 36.48552 -90.53918 26028 ft 442 kts 317°
2026-05-07 03:57 36.51241 -90.55811 26118 ft 447 kts 317°
2026-05-07 03:57 36.53966 -90.57735 26077 ft 454 kts 317°
2026-05-07 03:58 36.56727 -90.59684 26080 ft 459 kts 317°
2026-05-07 03:58 36.59528 -90.61661 26082 ft 464 kts 317°
2026-05-07 03:58 36.62351 -90.63654 26079 ft 468 kts 317°
2026-05-07 03:58 36.65192 -90.65655 26076 ft 469 kts 318°
2026-05-07 03:59 36.67999 -90.67630 26067 ft 468 kts 318°
2026-05-07 03:59 36.70834 -90.69627 26063 ft 468 kts 317°
2026-05-07 03:59 36.73663 -90.71623 26065 ft 467 kts 317°
2026-05-07 03:59 36.76494 -90.73625 26106 ft 467 kts 317°
2026-05-07 04:00 36.79318 -90.75628 26075 ft 467 kts 317°
2026-05-07 04:00 36.82135 -90.77628 26086 ft 467 kts 317°
2026-05-07 04:00 36.84956 -90.79632 26072 ft 466 kts 317°
2026-05-07 04:00 36.87781 -90.81642 26072 ft 466 kts 317°
2026-05-07 04:01 36.90592 -90.83642 26075 ft 466 kts 317°
2026-05-07 04:01 36.93414 -90.85652 26075 ft 466 kts 317°
2026-05-07 04:01 36.96229 -90.87659 26074 ft 466 kts 317°
2026-05-07 04:01 36.99043 -90.89667 26121 ft 466 kts 317°
2026-05-07 04:02 37.01856 -90.91676 26102 ft 466 kts 317°
2026-05-07 04:02 37.04669 -90.93687 26080 ft 465 kts 317°
2026-05-07 04:02 37.07477 -90.95695 26081 ft 465 kts 317°
2026-05-07 04:02 37.10245 -90.97676 26078 ft 464 kts 317°
2026-05-07 04:03 37.13046 -90.99682 26077 ft 464 kts 317°
2026-05-07 04:03 37.15851 -91.01692 26078 ft 463 kts 317°
2026-05-07 04:03 37.18645 -91.03698 26085 ft 463 kts 316°
2026-05-07 04:03 37.21436 -91.05704 26080 ft 462 kts 317°
2026-05-07 04:04 37.24224 -91.07709 26138 ft 462 kts 316°
2026-05-07 04:04 37.27015 -91.09720 26097 ft 462 kts 316°
2026-05-07 04:04 37.29804 -91.11729 26103 ft 462 kts 316°
2026-05-07 04:04 37.32592 -91.13737 26093 ft 462 kts 317°
2026-05-07 04:05 37.35376 -91.15746 26101 ft 461 kts 316°
2026-05-07 04:05 37.38152 -91.17749 26095 ft 461 kts 316°
2026-05-07 04:05 37.40931 -91.19757 26091 ft 461 kts 316°
2026-05-07 04:05 37.43714 -91.21771 26090 ft 460 kts 316°
2026-05-07 04:06 37.46489 -91.23780 26100 ft 460 kts 316°
2026-05-07 04:06 37.49261 -91.25789 26147 ft 460 kts 317°
2026-05-07 04:06 37.52034 -91.27801 26109 ft 460 kts 317°
2026-05-07 04:06 37.54802 -91.29810 26111 ft 459 kts 317°
2026-05-07 04:07 37.57564 -91.31816 26100 ft 458 kts 317°
2026-05-07 04:07 37.60323 -91.33821 26100 ft 457 kts 316°
2026-05-07 04:07 37.63079 -91.35827 26102 ft 457 kts 316°
2026-05-07 04:07 37.65799 -91.37808 26105 ft 457 kts 316°
2026-05-07 04:08 37.68551 -91.39814 26105 ft 457 kts 316°
2026-05-07 04:08 37.71301 -91.41822 26154 ft 457 kts 317°
2026-05-07 04:08 37.74054 -91.43834 26115 ft 457 kts 317°
2026-05-07 04:08 37.76813 -91.45851 26125 ft 457 kts 317°
2026-05-07 04:09 37.79566 -91.47865 26108 ft 457 kts 317°
2026-05-07 04:09 37.82319 -91.49880 26115 ft 457 kts 317°
2026-05-07 04:09 37.85071 -91.51897 26111 ft 457 kts 317°
2026-05-07 04:09 37.87822 -91.53916 26135 ft 457 kts 317°
2026-05-07 04:10 37.90579 -91.55942 26117 ft 457 kts 317°
2026-05-07 04:10 37.93331 -91.57963 26124 ft 457 kts 317°
2026-05-07 04:10 37.96085 -91.59987 26136 ft 457 kts 318°
2026-05-07 04:10 37.98836 -91.62013 26134 ft 457 kts 317°
2026-05-07 04:11 38.01585 -91.64038 26130 ft 457 kts 318°
2026-05-07 04:11 38.04301 -91.66039 26126 ft 457 kts 317°
2026-05-07 04:11 38.07049 -91.68066 26129 ft 456 kts 317°
2026-05-07 04:11 38.09792 -91.70091 26127 ft 456 kts 317°
2026-05-07 04:12 38.12529 -91.72115 26129 ft 456 kts 317°
2026-05-07 04:12 38.15274 -91.74145 26127 ft 455 kts 317°
2026-05-07 04:12 38.18011 -91.76173 26192 ft 455 kts 318°
2026-05-07 04:12 38.20751 -91.78207 26140 ft 457 kts 319°
2026-05-07 04:13 38.23500 -91.80248 26140 ft 458 kts 319°
2026-05-07 04:13 38.26253 -91.82292 26125 ft 458 kts 319°
2026-05-07 04:13 38.29008 -91.84340 26129 ft 459 kts 319°
2026-05-07 04:13 38.31765 -91.86390 26124 ft 459 kts 319°
2026-05-07 04:14 38.34525 -91.88444 26109 ft 460 kts 319°
2026-05-07 04:14 38.37286 -91.90501 26107 ft 460 kts 319°
2026-05-07 04:14 38.40041 -91.92556 26110 ft 460 kts 319°
2026-05-07 04:14 38.42804 -91.94619 26118 ft 460 kts 319°
2026-05-07 04:15 38.45569 -91.96683 26115 ft 460 kts 319°
2026-05-07 04:15 38.48301 -91.98726 26119 ft 460 kts 319°
2026-05-07 04:15 38.51062 -92.00797 26124 ft 460 kts 319°
2026-05-07 04:15 38.53813 -92.02890 26128 ft 460 kts 318°
2026-05-07 04:16 38.56552 -92.04994 26126 ft 459 kts 318°
2026-05-07 04:16 38.59286 -92.07103 26131 ft 459 kts 318°
2026-05-07 04:16 38.62019 -92.09213 26133 ft 459 kts 318°
2026-05-07 04:16 38.64752 -92.11324 26171 ft 459 kts 318°
2026-05-07 04:17 38.67487 -92.13436 26138 ft 459 kts 318°
2026-05-07 04:17 38.70223 -92.15549 26123 ft 459 kts 318°
2026-05-07 04:17 38.72963 -92.17665 26130 ft 459 kts 318°
2026-05-07 04:17 38.75694 -92.19774 26124 ft 458 kts 318°
2026-05-07 04:18 38.78422 -92.21883 26123 ft 458 kts 318°
2026-05-07 04:18 38.81147 -92.23992 26128 ft 457 kts 318°
2026-05-07 04:18 38.83870 -92.26102 26141 ft 457 kts 318°
2026-05-07 04:18 38.86557 -92.28185 26126 ft 457 kts 318°
2026-05-07 04:19 38.89282 -92.30302 26150 ft 457 kts 319°
2026-05-07 04:19 38.92005 -92.32420 26134 ft 458 kts 319°
2026-05-07 04:19 38.94736 -92.34543 26135 ft 458 kts 319°
2026-05-07 04:19 38.97455 -92.36659 26124 ft 458 kts 319°
2026-05-07 04:20 39.00187 -92.38786 26123 ft 458 kts 319°
2026-05-07 04:20 39.02911 -92.40910 26127 ft 458 kts 319°
2026-05-07 04:20 39.05636 -92.43036 26133 ft 458 kts 319°
2026-05-07 04:21 39.11083 -92.47294 26153 ft 458 kts 319°
2026-05-07 04:21 39.13818 -92.49435 26132 ft 459 kts 319°
2026-05-07 04:21 39.16548 -92.51573 26133 ft 459 kts 319°
2026-05-07 04:21 39.19278 -92.53713 26130 ft 459 kts 319°
2026-05-07 04:22 39.21977 -92.55831 26129 ft 459 kts 319°
2026-05-07 04:22 39.24706 -92.57974 26127 ft 459 kts 319°
2026-05-07 04:22 39.27434 -92.60119 26127 ft 459 kts 319°
2026-05-07 04:22 39.30161 -92.62265 26124 ft 459 kts 319°
2026-05-07 04:23 39.32888 -92.64412 26168 ft 459 kts 319°
2026-05-07 04:23 39.35623 -92.66570 26123 ft 460 kts 319°
2026-05-07 04:23 39.38354 -92.68725 26135 ft 460 kts 320°
2026-05-07 04:23 39.41085 -92.70881 26125 ft 460 kts 320°
2026-05-07 04:24 39.43823 -92.73047 26126 ft 460 kts 320°
2026-05-07 04:24 39.46549 -92.75203 26125 ft 460 kts 320°
2026-05-07 04:24 39.49281 -92.77367 26129 ft 460 kts 320°
2026-05-07 04:24 39.52018 -92.79537 26125 ft 460 kts 320°
2026-05-07 04:25 39.54719 -92.81679 26172 ft 460 kts 319°
2026-05-07 04:25 39.57450 -92.83849 26144 ft 461 kts 319°
2026-05-07 04:25 39.60191 -92.86028 26124 ft 461 kts 319°
2026-05-07 04:25 39.62922 -92.88201 26124 ft 460 kts 319°
2026-05-07 04:26 39.65651 -92.90375 26133 ft 460 kts 319°
2026-05-07 04:26 39.68378 -92.92548 26124 ft 460 kts 319°
2026-05-07 04:26 39.71103 -92.94723 26162 ft 461 kts 319°
2026-05-07 04:26 39.73841 -92.96912 26396 ft 463 kts 319°
2026-05-07 04:27 39.76586 -92.99108 26717 ft 464 kts 319°
2026-05-07 04:27 39.79332 -93.01305 27133 ft 462 kts 319°
2026-05-07 04:27 39.82066 -93.03492 27575 ft 460 kts 319°
2026-05-07 04:27 39.84792 -93.05674 28031 ft 458 kts 319°
2026-05-07 04:28 39.87496 -93.07841 28504 ft 455 kts 319°
2026-05-07 04:28 39.90151 -93.09972 28915 ft 453 kts 318°
2026-05-07 04:28 39.92831 -93.12127 29283 ft 452 kts 318°
2026-05-07 04:28 39.95506 -93.14281 29644 ft 451 kts 318°
2026-05-07 04:29 39.98173 -93.16430 30004 ft 450 kts 318°
2026-05-07 04:29 40.00841 -93.18584 30102 ft 452 kts 318°
2026-05-07 04:29 40.06165 -93.22883 30114 ft 448 kts 318°
2026-05-07 04:30 40.11471 -93.27175 30119 ft 447 kts 318°
2026-05-07 04:30 40.16759 -93.31461 30123 ft 447 kts 318°
2026-05-07 04:31 40.22011 -93.35728 30153 ft 447 kts 318°
2026-05-07 04:31 40.27306 -93.40037 30103 ft 448 kts 318°
2026-05-07 04:32 40.32601 -93.44351 30099 ft 448 kts 318°
2026-05-07 04:32 40.37898 -93.48676 30106 ft 449 kts 318°
2026-05-07 04:33 40.43198 -93.53012 30142 ft 449 kts 319°
2026-05-07 04:33 40.48508 -93.57365 30119 ft 451 kts 319°
2026-05-07 04:34 40.53840 -93.61742 30096 ft 451 kts 319°
2026-05-07 04:34 40.59162 -93.66119 30102 ft 452 kts 319°
2026-05-07 04:35 40.63598 -93.69775 30101 ft 452 kts 319°
2026-05-07 04:35 40.69789 -93.74887 30099 ft 451 kts 319°
2026-05-07 04:36 40.74213 -93.78546 30094 ft 451 kts 318°
2026-05-07 04:36 40.79532 -93.82957 30100 ft 452 kts 320°
2026-05-07 04:37 40.84863 -93.87383 30130 ft 453 kts 320°
2026-05-07 04:37 40.90217 -93.91837 30104 ft 455 kts 320°
2026-05-07 04:38 40.95576 -93.96304 30098 ft 456 kts 320°
2026-05-07 04:38 41.00952 -94.00786 30094 ft 457 kts 321°
2026-05-07 04:39 41.06460 -94.05069 30136 ft 460 kts 323°
2026-05-07 04:39 41.11996 -94.09238 30102 ft 461 kts 323°
2026-05-07 04:40 41.17568 -94.13466 30087 ft 461 kts 323°
2026-05-07 04:40 41.23117 -94.17722 30083 ft 460 kts 323°
2026-05-07 04:41 41.28652 -94.21988 30121 ft 459 kts 324°
2026-05-07 04:41 41.34181 -94.26262 30094 ft 458 kts 324°
2026-05-07 04:42 41.39690 -94.30528 30089 ft 457 kts 324°
2026-05-07 04:42 41.45187 -94.34791 30088 ft 456 kts 324°
2026-05-07 04:43 41.50657 -94.39042 30102 ft 456 kts 324°
2026-05-07 04:43 41.56145 -94.43315 30093 ft 456 kts 324°
2026-05-07 04:44 41.61580 -94.47556 30081 ft 455 kts 324°
2026-05-07 04:44 41.67050 -94.51832 30082 ft 455 kts 324°
2026-05-07 04:45 41.72511 -94.56110 30092 ft 455 kts 325°
2026-05-07 04:45 41.77969 -94.60392 30072 ft 453 kts 326°
2026-05-07 04:46 41.83384 -94.64650 30073 ft 450 kts 326°
2026-05-07 04:46 41.88768 -94.68893 30053 ft 448 kts 326°
2026-05-07 04:47 41.94092 -94.73096 30059 ft 446 kts 326°
2026-05-07 04:47 41.99442 -94.77329 30054 ft 445 kts 326°
2026-05-07 04:48 42.04770 -94.81552 30036 ft 445 kts 326°
2026-05-07 04:48 42.10106 -94.85790 30102 ft 445 kts 326°
2026-05-07 04:49 42.15454 -94.90047 30060 ft 445 kts 326°
2026-05-07 04:49 42.20782 -94.94295 30080 ft 446 kts 326°
2026-05-07 04:50 42.26077 -94.98525 30074 ft 444 kts 327°
2026-05-07 04:50 42.31374 -95.02765 30102 ft 442 kts 326°
2026-05-07 04:51 42.36647 -95.06994 30061 ft 439 kts 326°
2026-05-07 04:51 42.41907 -95.11221 30041 ft 438 kts 326°
2026-05-07 04:52 42.47106 -95.15407 30038 ft 437 kts 326°
2026-05-07 04:52 42.52327 -95.19620 30033 ft 437 kts 326°
2026-05-07 04:53 42.57563 -95.23855 30034 ft 438 kts 326°
2026-05-07 04:53 42.62798 -95.28095 30027 ft 438 kts 326°
2026-05-07 04:54 42.68046 -95.32354 30034 ft 439 kts 326°
2026-05-07 04:54 42.73287 -95.36616 30022 ft 437 kts 327°
2026-05-07 04:55 42.78449 -95.40822 30030 ft 434 kts 327°
2026-05-07 04:55 42.83619 -95.45042 30025 ft 431 kts 327°
2026-05-07 04:56 42.88761 -95.49249 30036 ft 430 kts 327°
2026-05-07 04:56 42.93887 -95.53451 30048 ft 430 kts 327°
2026-05-07 04:57 42.99014 -95.57663 30038 ft 430 kts 327°
2026-05-07 04:57 43.04152 -95.61891 30040 ft 431 kts 327°
2026-05-07 04:58 43.09253 -95.66097 30045 ft 432 kts 327°
2026-05-07 04:58 43.14424 -95.70370 30009 ft 434 kts 326°
2026-05-07 04:59 43.19584 -95.74641 29983 ft 432 kts 327°
2026-05-07 04:59 43.24721 -95.78901 29985 ft 429 kts 327°
2026-05-07 05:00 43.29772 -95.83100 30007 ft 426 kts 327°
2026-05-07 05:00 43.34838 -95.87319 30002 ft 425 kts 327°
2026-05-07 05:01 43.39894 -95.91539 30018 ft 424 kts 327°
2026-05-07 05:01 43.44943 -95.95761 30027 ft 425 kts 327°
2026-05-07 05:02 43.49953 -96.00094 30046 ft 426 kts 323°
2026-05-07 05:02 43.54516 -96.05297 30045 ft 427 kts 318°
2026-05-07 05:03 43.59009 -96.10659 30041 ft 427 kts 319°
2026-05-07 05:03 43.63504 -96.15997 30016 ft 425 kts 319°
2026-05-07 05:04 43.67946 -96.21279 30048 ft 424 kts 319°
2026-05-07 05:04 43.72413 -96.26602 30022 ft 423 kts 319°
2026-05-07 05:05 43.76863 -96.31918 30029 ft 422 kts 318°
2026-05-07 05:05 43.81306 -96.37236 30036 ft 422 kts 318°
2026-05-07 05:06 43.85746 -96.42562 30054 ft 423 kts 318°
2026-05-07 05:06 43.90199 -96.47914 30024 ft 424 kts 319°
2026-05-07 05:07 43.94644 -96.53267 30041 ft 422 kts 319°
2026-05-07 05:07 43.99050 -96.58583 30055 ft 421 kts 318°
2026-05-07 05:08 44.03466 -96.63924 30096 ft 420 kts 318°
2026-05-07 05:08 44.07885 -96.69276 30062 ft 421 kts 318°
2026-05-07 05:09 44.12315 -96.74656 30055 ft 422 kts 318°
2026-05-07 05:09 44.16745 -96.80047 30050 ft 423 kts 318°
2026-05-07 05:10 44.21178 -96.85453 30003 ft 423 kts 319°
2026-05-07 05:10 44.25570 -96.90819 30060 ft 421 kts 319°
2026-05-07 05:11 44.29965 -96.96200 30016 ft 419 kts 319°
2026-05-07 05:11 44.34345 -97.01573 30026 ft 418 kts 318°
2026-05-07 05:12 44.38698 -97.06925 30038 ft 417 kts 318°
2026-05-07 05:12 44.43060 -97.12298 30054 ft 418 kts 318°
2026-05-07 05:13 44.47433 -97.17698 30051 ft 420 kts 318°
2026-05-07 05:13 44.51821 -97.23127 30057 ft 421 kts 318°
2026-05-07 05:14 44.56183 -97.28533 30053 ft 422 kts 318°
2026-05-07 05:14 44.60588 -97.34006 30044 ft 423 kts 318°
2026-05-07 05:15 44.65004 -97.39504 30039 ft 424 kts 318°
2026-05-07 05:15 44.69410 -97.45000 30036 ft 424 kts 318°
2026-05-07 05:16 44.73814 -97.50506 30044 ft 424 kts 318°
2026-05-07 05:16 44.78223 -97.56030 30040 ft 425 kts 318°
2026-05-07 05:17 44.82626 -97.61559 30004 ft 426 kts 318°
2026-05-07 05:17 44.87025 -97.67094 30029 ft 423 kts 318°
2026-05-07 05:18 44.91402 -97.72613 30031 ft 420 kts 318°
2026-05-07 05:18 44.95716 -97.78063 30044 ft 419 kts 318°
2026-05-07 05:19 45.00055 -97.83558 30042 ft 419 kts 318°
2026-05-07 05:19 45.04400 -97.89072 30039 ft 420 kts 318°
2026-05-07 05:20 45.08759 -97.94615 30034 ft 422 kts 318°
2026-05-07 05:20 45.13131 -98.00187 30029 ft 424 kts 318°
2026-05-07 05:21 45.19721 -98.08609 30026 ft 427 kts 318°
2026-05-07 05:22 45.24112 -98.14236 30009 ft 421 kts 318°
2026-05-07 05:22 45.28416 -98.19764 30004 ft 416 kts 318°
2026-05-07 05:23 45.32716 -98.25296 30004 ft 418 kts 319°
2026-05-07 05:23 45.37004 -98.30826 29991 ft 420 kts 319°
2026-05-07 05:24 45.41360 -98.36378 29990 ft 421 kts 321°
2026-05-07 05:24 45.46141 -98.41212 29990 ft 422 kts 326°
2026-05-07 05:25 45.51021 -98.45880 30042 ft 424 kts 326°
2026-05-07 05:25 45.55926 -98.50612 30023 ft 425 kts 326°
2026-05-07 05:26 45.60838 -98.55371 30022 ft 426 kts 325°
2026-05-07 05:26 45.65741 -98.60131 30033 ft 427 kts 326°
2026-05-07 05:27 45.69831 -98.64109 30022 ft 428 kts 326°
2026-05-07 05:27 45.75470 -98.69606 30007 ft 415 kts 326°
2026-05-07 05:28 45.79464 -98.73507 30011 ft 415 kts 326°
2026-05-07 05:28 45.84209 -98.78151 30042 ft 417 kts 326°
2026-05-07 05:29 45.89015 -98.82863 30031 ft 420 kts 326°
2026-05-07 05:29 45.93853 -98.87617 30024 ft 422 kts 326°
2026-05-07 05:30 45.98696 -98.92387 30019 ft 423 kts 326°
2026-05-07 05:30 46.03555 -98.97183 30025 ft 424 kts 326°
2026-05-07 05:31 46.08418 -99.01994 30020 ft 424 kts 326°
2026-05-07 05:31 46.13272 -99.06805 30028 ft 424 kts 326°
2026-05-07 05:32 46.18129 -99.11631 30004 ft 423 kts 326°
2026-05-07 05:32 46.22971 -99.16453 30002 ft 423 kts 326°
2026-05-07 05:33 46.27782 -99.21253 30011 ft 422 kts 326°
2026-05-07 05:33 46.32594 -99.26064 29994 ft 414 kts 327°
2026-05-07 05:34 46.37291 -99.30775 30002 ft 409 kts 327°
2026-05-07 05:34 46.41976 -99.35479 30001 ft 410 kts 327°
2026-05-07 05:35 46.46673 -99.40205 30009 ft 411 kts 327°
2026-05-07 05:35 46.51354 -99.44926 30008 ft 412 kts 327°
2026-05-07 05:36 46.56072 -99.49694 30007 ft 413 kts 327°
2026-05-07 05:36 46.60792 -99.54476 30015 ft 414 kts 327°
2026-05-07 05:37 46.65535 -99.59291 30002 ft 415 kts 327°
2026-05-07 05:37 46.70255 -99.64092 30008 ft 416 kts 327°
2026-05-07 05:38 46.74993 -99.68924 30010 ft 416 kts 327°
2026-05-07 05:38 46.79746 -99.73781 30004 ft 417 kts 327°
2026-05-07 05:39 46.84500 -99.78649 30004 ft 417 kts 327°
2026-05-07 05:39 46.89241 -99.83514 30007 ft 416 kts 327°
2026-05-07 05:40 46.93938 -99.88349 29994 ft 407 kts 327°
2026-05-07 05:40 46.98546 -99.93099 30016 ft 405 kts 327°
2026-05-07 05:41 47.03121 -99.97823 30014 ft 405 kts 327°
2026-05-07 05:41 47.07731 -100.02595 30013 ft 406 kts 327°
2026-05-07 05:42 47.12345 -100.07381 30007 ft 406 kts 327°
2026-05-07 05:42 47.16959 -100.12178 30006 ft 407 kts 327°
2026-05-07 05:43 47.21580 -100.16994 30021 ft 407 kts 327°
2026-05-07 05:43 47.26209 -100.21827 30002 ft 408 kts 327°
2026-05-07 05:44 47.30844 -100.26679 29996 ft 409 kts 327°
2026-05-07 05:44 47.35475 -100.31537 29996 ft 408 kts 327°
2026-05-07 05:45 47.40079 -100.36376 29996 ft 409 kts 327°
2026-05-07 05:45 47.44691 -100.41235 29991 ft 409 kts 327°
2026-05-07 05:46 47.49320 -100.46122 30000 ft 409 kts 327°
2026-05-07 05:46 47.53940 -100.51015 29959 ft 408 kts 327°
2026-05-07 05:47 47.58548 -100.55899 29981 ft 407 kts 327°
2026-05-07 05:47 47.63159 -100.60797 29993 ft 408 kts 327°
2026-05-07 05:48 47.67738 -100.65675 29975 ft 408 kts 327°
2026-05-07 05:48 47.72355 -100.70604 29982 ft 408 kts 327°
2026-05-07 05:49 47.76973 -100.75546 29972 ft 409 kts 327°
2026-05-07 05:49 47.81592 -100.80499 29974 ft 409 kts 327°
2026-05-07 05:50 47.86188 -100.85438 29977 ft 409 kts 327°
2026-05-07 05:50 47.90806 -100.90412 29973 ft 410 kts 327°
2026-05-07 05:51 47.95423 -100.95397 29972 ft 410 kts 327°
2026-05-07 05:51 48.00042 -101.00396 29977 ft 410 kts 327°
2026-05-07 05:52 48.04657 -101.05401 29973 ft 410 kts 327°
2026-05-07 05:52 48.09269 -101.10415 29969 ft 410 kts 327°
2026-05-07 05:53 48.13877 -101.15434 29910 ft 410 kts 327°
2026-05-07 05:53 48.18484 -101.20467 29975 ft 409 kts 327°
2026-05-07 05:54 48.23082 -101.25497 29944 ft 409 kts 326°
2026-05-07 05:54 48.27564 -101.30802 29944 ft 412 kts 321°
2026-05-07 05:55 48.31717 -101.36666 29945 ft 413 kts 321°
2026-05-07 05:55 48.35921 -101.42554 29918 ft 413 kts 321°
2026-05-07 05:56 48.40127 -101.48449 29917 ft 413 kts 321°
2026-05-07 05:56 48.44331 -101.54354 29924 ft 414 kts 321°
2026-05-07 05:57 48.48538 -101.60280 29939 ft 413 kts 321°
2026-05-07 05:57 48.52738 -101.66211 29985 ft 414 kts 321°
2026-05-07 05:58 48.56941 -101.72159 29979 ft 414 kts 321°
2026-05-07 05:58 48.61141 -101.78118 29979 ft 414 kts 321°
2026-05-07 05:59 48.65302 -101.84036 29980 ft 413 kts 320°
2026-05-07 05:59 48.69492 -101.90009 29985 ft 414 kts 320°
2026-05-07 06:00 48.73693 -101.96011 29976 ft 416 kts 320°
2026-05-07 06:00 48.77907 -102.02049 29976 ft 416 kts 320°
2026-05-07 06:01 48.82122 -102.08102 29984 ft 417 kts 320°
2026-05-07 06:01 48.86339 -102.14173 29987 ft 417 kts 320°
2026-05-07 06:02 48.90520 -102.20206 29976 ft 417 kts 320°
2026-05-07 06:02 48.94730 -102.26298 29986 ft 417 kts 320°
2026-05-07 06:03 48.98929 -102.32385 29995 ft 417 kts 320°
2026-05-07 06:03 49.03134 -102.38499 29982 ft 417 kts 320°
2026-05-07 06:04 49.07334 -102.44624 29931 ft 417 kts 320°
2026-05-07 06:04 49.11527 -102.50756 29977 ft 417 kts 320°
2026-05-07 06:05 49.15687 -102.56853 29977 ft 418 kts 319°
2026-05-07 06:05 49.19882 -102.63018 29967 ft 419 kts 319°
2026-05-07 06:06 49.24087 -102.69213 29995 ft 419 kts 319°
2026-05-07 06:06 49.28289 -102.75418 30005 ft 420 kts 319°
2026-05-07 06:07 49.32497 -102.81648 30003 ft 420 kts 319°
2026-05-07 06:07 49.36693 -102.87875 30005 ft 420 kts 319°
2026-05-07 06:08 49.40896 -102.94129 30008 ft 420 kts 319°
2026-05-07 06:08 49.45062 -103.00344 29999 ft 420 kts 319°
2026-05-07 06:09 49.49252 -103.06610 29996 ft 420 kts 319°
2026-05-07 06:09 49.53436 -103.12883 30003 ft 420 kts 319°
2026-05-07 06:10 49.57621 -103.19173 30005 ft 420 kts 319°
2026-05-07 06:10 49.61793 -103.25459 29999 ft 420 kts 319°
2026-05-07 06:11 49.65972 -103.31772 29999 ft 420 kts 319°
2026-05-07 06:11 49.70151 -103.38100 29998 ft 420 kts 319°
2026-05-07 06:12 49.74295 -103.44393 29997 ft 421 kts 319°
2026-05-07 06:12 49.78466 -103.50742 29998 ft 421 kts 319°
2026-05-07 06:13 49.82640 -103.57111 29993 ft 421 kts 319°
2026-05-07 06:13 49.86812 -103.63494 29990 ft 421 kts 319°
2026-05-07 06:14 49.90956 -103.69851 30001 ft 421 kts 319°
2026-05-07 06:14 49.95124 -103.76259 29948 ft 422 kts 318°
2026-05-07 06:15 49.99291 -103.82684 29998 ft 423 kts 318°
2026-05-07 06:15 50.03467 -103.89139 30006 ft 424 kts 318°
2026-05-07 06:16 50.07656 -103.95631 29999 ft 426 kts 318°
2026-05-07 06:16 50.11857 -104.02159 29999 ft 428 kts 318°
2026-05-07 06:17 50.15363 -104.07622 30002 ft 428 kts 318°
2026-05-07 06:17 50.19580 -104.14207 30002 ft 428 kts 318°
2026-05-07 06:18 50.23786 -104.20793 29998 ft 428 kts 318°
2026-05-07 06:18 50.27987 -104.27387 29983 ft 427 kts 318°
2026-05-07 06:19 50.32175 -104.33978 29975 ft 426 kts 318°
2026-05-07 06:19 50.36350 -104.40567 29964 ft 426 kts 318°
2026-05-07 06:20 50.40521 -104.47167 29895 ft 425 kts 317°
2026-05-07 06:20 50.44653 -104.53722 29939 ft 425 kts 317°
2026-05-07 06:21 50.48811 -104.60336 29951 ft 427 kts 317°
2026-05-07 06:21 50.52984 -104.66992 29954 ft 428 kts 317°
2026-05-07 06:22 50.57164 -104.73677 29961 ft 430 kts 317°
2026-05-07 06:22 50.63459 -104.83777 30015 ft 431 kts 317°
2026-05-07 06:23 50.67525 -104.90740 30009 ft 434 kts 311°
2026-05-07 06:23 50.71041 -104.98512 30008 ft 435 kts 309°
2026-05-07 06:24 50.74540 -105.06292 30011 ft 435 kts 309°
2026-05-07 06:24 50.78047 -105.14073 30010 ft 435 kts 309°
2026-05-07 06:25 50.81527 -105.21809 30010 ft 434 kts 309°
2026-05-07 06:25 50.85023 -105.29602 30009 ft 435 kts 309°
2026-05-07 06:26 50.88523 -105.37429 30015 ft 435 kts 309°
2026-05-07 06:26 50.92021 -105.45277 30015 ft 436 kts 309°
2026-05-07 06:27 50.95519 -105.53149 30015 ft 437 kts 309°
2026-05-07 06:27 50.99018 -105.61046 30014 ft 437 kts 309°
2026-05-07 06:28 51.02514 -105.68960 30013 ft 438 kts 309°
2026-05-07 06:28 51.06006 -105.76891 30012 ft 438 kts 309°
2026-05-07 06:29 51.09499 -105.84847 29981 ft 438 kts 308°
2026-05-07 06:29 51.12987 -105.92815 30013 ft 440 kts 308°
2026-05-07 06:30 51.16484 -106.00827 30002 ft 442 kts 308°
2026-05-07 06:30 51.19991 -106.08889 30009 ft 443 kts 308°
2026-05-07 06:31 51.23479 -106.16933 30007 ft 444 kts 308°
2026-05-07 06:31 51.26995 -106.25068 30006 ft 445 kts 308°
2026-05-07 06:32 51.30510 -106.33225 30010 ft 445 kts 308°
2026-05-07 06:32 51.34010 -106.41372 30011 ft 445 kts 308°
2026-05-07 06:33 51.37506 -106.49536 29970 ft 444 kts 307°
2026-05-07 06:33 51.40997 -106.57712 29992 ft 444 kts 307°
2026-05-07 06:34 51.44480 -106.65898 30005 ft 445 kts 307°
2026-05-07 06:34 51.47947 -106.74070 30000 ft 445 kts 307°
2026-05-07 06:35 51.51433 -106.82313 29998 ft 446 kts 307°
2026-05-07 06:35 51.54912 -106.90567 29989 ft 446 kts 307°
2026-05-07 06:36 51.58389 -106.98841 29997 ft 447 kts 307°
2026-05-07 06:36 51.61863 -107.07137 29987 ft 447 kts 307°
2026-05-07 06:37 51.65312 -107.15397 29987 ft 447 kts 307°
2026-05-07 06:37 51.68778 -107.23727 29980 ft 447 kts 306°
2026-05-07 06:38 51.72240 -107.32072 29984 ft 447 kts 306°
2026-05-07 06:38 51.75692 -107.40421 29986 ft 448 kts 306°
2026-05-07 06:39 51.79123 -107.48747 29983 ft 448 kts 306°
2026-05-07 06:39 51.82570 -107.57138 29982 ft 448 kts 306°
2026-05-07 06:40 51.86016 -107.65555 29978 ft 448 kts 306°
2026-05-07 06:40 51.89456 -107.73984 29981 ft 448 kts 306°
2026-05-07 06:41 51.92887 -107.82420 29984 ft 449 kts 306°
2026-05-07 06:41 51.96317 -107.90880 29983 ft 448 kts 305°
2026-05-07 06:42 51.99720 -107.99305 29975 ft 449 kts 304°
2026-05-07 06:42 52.02904 -108.08061 30000 ft 451 kts 302°
2026-05-07 06:43 52.06004 -108.16940 29976 ft 452 kts 302°
2026-05-07 06:43 52.09107 -108.25844 29974 ft 452 kts 302°
2026-05-07 06:44 52.12210 -108.34741 29979 ft 452 kts 302°
2026-05-07 06:44 52.15313 -108.43650 29976 ft 452 kts 302°
2026-05-07 06:45 52.18392 -108.52517 29977 ft 452 kts 302°
2026-05-07 06:45 52.21483 -108.61451 29971 ft 453 kts 301°
2026-05-07 06:46 52.24571 -108.70412 29982 ft 453 kts 301°
2026-05-07 06:46 52.27661 -108.79407 29973 ft 455 kts 301°
2026-05-07 06:47 52.30752 -108.88440 29973 ft 456 kts 301°
2026-05-07 06:47 52.33843 -108.97507 29968 ft 457 kts 301°
2026-05-07 06:48 52.36936 -109.06612 29966 ft 458 kts 301°
2026-05-07 06:48 52.40000 -109.15666 29970 ft 458 kts 301°
2026-05-07 06:49 52.43075 -109.24782 29943 ft 458 kts 300°
2026-05-07 06:49 52.46146 -109.33924 29955 ft 458 kts 300°
2026-05-07 06:50 52.49218 -109.43101 29962 ft 459 kts 300°
2026-05-07 06:50 52.52290 -109.52312 29957 ft 460 kts 300°
2026-05-07 06:51 52.55355 -109.61538 29949 ft 460 kts 300°
2026-05-07 06:51 52.58418 -109.70792 29957 ft 460 kts 300°
2026-05-07 06:52 52.61471 -109.80051 29949 ft 461 kts 300°
2026-05-07 06:52 52.64518 -109.89324 29949 ft 460 kts 300°
2026-05-07 06:53 52.67536 -109.98545 29946 ft 460 kts 300°
2026-05-07 06:53 52.70568 -110.07845 29946 ft 460 kts 300°
2026-05-07 06:54 52.73588 -110.17140 29941 ft 459 kts 300°
2026-05-07 06:54 52.76600 -110.26446 29946 ft 459 kts 300°
2026-05-07 06:55 52.79607 -110.35775 29950 ft 459 kts 300°
2026-05-07 06:55 52.82603 -110.45106 29949 ft 459 kts 299°
2026-05-07 06:56 52.85576 -110.54399 29943 ft 460 kts 299°
2026-05-07 06:56 52.88561 -110.63762 29918 ft 460 kts 299°
2026-05-07 06:57 52.91542 -110.73153 29942 ft 460 kts 299°
2026-05-07 06:57 52.94516 -110.82558 29950 ft 461 kts 299°
2026-05-07 06:58 52.97493 -110.92007 29945 ft 462 kts 299°
2026-05-07 06:58 53.00598 -111.01357 29932 ft 462 kts 304°
2026-05-07 06:59 53.04416 -111.09925 29937 ft 462 kts 308°
2026-05-07 06:59 53.08271 -111.18393 29928 ft 462 kts 308°
2026-05-07 07:00 53.12120 -111.26943 29934 ft 462 kts 307°
2026-05-07 07:00 53.15956 -111.35530 29923 ft 462 kts 307°
2026-05-07 07:01 53.19784 -111.44132 29899 ft 462 kts 307°
2026-05-07 07:01 53.23602 -111.52742 29913 ft 461 kts 307°
2026-05-07 07:02 53.27414 -111.61366 29914 ft 461 kts 307°
2026-05-07 07:02 53.31220 -111.70005 29907 ft 462 kts 307°
2026-05-07 07:03 53.35022 -111.78666 29904 ft 462 kts 307°
2026-05-07 07:03 53.38178 -111.85876 29896 ft 462 kts 307°
2026-05-07 07:04 53.41972 -111.94572 29894 ft 462 kts 307°
2026-05-07 07:04 53.46369 -112.04687 29889 ft 462 kts 307°
2026-05-07 07:05 53.49536 -112.11998 29888 ft 462 kts 306°
2026-05-07 07:05 53.53309 -112.20736 29887 ft 462 kts 306°
2026-05-07 07:06 53.57054 -112.29440 29887 ft 462 kts 306°
2026-05-07 07:06 53.60814 -112.38209 29878 ft 462 kts 306°
2026-05-07 07:07 53.64568 -112.46995 29886 ft 462 kts 306°
2026-05-07 07:07 53.68320 -112.55807 29886 ft 462 kts 306°
2026-05-07 07:08 53.72064 -112.64629 29884 ft 462 kts 306°
2026-05-07 07:08 53.75792 -112.73446 29880 ft 462 kts 306°
2026-05-07 07:09 53.79497 -112.82240 29879 ft 462 kts 306°
2026-05-07 07:09 53.83216 -112.91097 29880 ft 461 kts 306°
2026-05-07 07:10 53.86927 -112.99967 29879 ft 461 kts 306°
2026-05-07 07:10 53.90625 -113.08854 29879 ft 461 kts 304°
2026-05-07 07:11 53.93594 -113.18490 29870 ft 462 kts 293°
2026-05-07 07:11 53.95515 -113.28899 29883 ft 463 kts 285°
2026-05-07 07:12 53.96968 -113.39495 29877 ft 464 kts 284°
2026-05-07 07:12 53.98438 -113.50186 29891 ft 464 kts 284°
2026-05-07 07:13 53.99924 -113.60876 29880 ft 465 kts 284°
2026-05-07 07:13 54.01413 -113.71591 29880 ft 465 kts 284°
2026-05-07 07:14 54.02891 -113.82313 29877 ft 465 kts 284°
2026-05-07 07:14 54.04356 -113.93026 29875 ft 465 kts 284°
2026-05-07 07:15 54.05804 -114.03677 29881 ft 464 kts 284°
2026-05-07 07:15 54.07399 -114.14348 29878 ft 463 kts 289°
2026-05-07 07:16 54.09849 -114.24476 29899 ft 462 kts 294°
2026-05-07 07:16 54.12409 -114.34537 29884 ft 463 kts 294°
2026-05-07 07:17 54.14934 -114.44615 29891 ft 463 kts 294°
2026-05-07 07:17 54.17443 -114.54727 29893 ft 463 kts 294°
2026-05-07 07:18 54.19943 -114.64860 29890 ft 462 kts 293°
2026-05-07 07:18 54.22435 -114.75010 29894 ft 462 kts 293°
2026-05-07 07:19 54.24913 -114.85148 29894 ft 462 kts 293°
2026-05-07 07:19 54.27384 -114.95300 29897 ft 462 kts 293°
2026-05-07 07:20 54.29848 -115.05473 29898 ft 463 kts 292°
2026-05-07 07:20 54.32290 -115.15603 29898 ft 463 kts 292°
2026-05-07 07:21 54.34739 -115.25806 29900 ft 463 kts 292°
2026-05-07 07:21 54.37185 -115.36045 29894 ft 463 kts 292°
2026-05-07 07:22 54.39617 -115.46274 29916 ft 462 kts 292°
2026-05-07 07:22 54.42034 -115.56491 29899 ft 462 kts 292°
2026-05-07 07:23 54.44428 -115.66660 29906 ft 461 kts 292°
2026-05-07 07:23 54.46821 -115.76870 29897 ft 460 kts 292°
2026-05-07 07:24 54.49202 -115.87079 29914 ft 460 kts 292°
2026-05-07 07:24 54.51574 -115.97297 29908 ft 460 kts 291°
2026-05-07 07:25 54.55121 -116.12664 29887 ft 460 kts 291°
2026-05-07 07:26 54.57470 -116.22909 29903 ft 460 kts 291°
2026-05-07 07:26 54.59817 -116.33191 29904 ft 460 kts 291°
2026-05-07 07:27 54.62138 -116.43411 29906 ft 461 kts 291°
2026-05-07 07:27 54.64468 -116.53718 29903 ft 461 kts 291°
2026-05-07 07:28 54.66790 -116.64039 29905 ft 461 kts 291°
2026-05-07 07:28 54.69102 -116.74368 29905 ft 461 kts 291°
2026-05-07 07:29 54.71402 -116.84696 29903 ft 460 kts 291°
2026-05-07 07:29 54.73687 -116.95006 29904 ft 456 kts 291°
2026-05-07 07:30 54.75941 -117.05228 29900 ft 453 kts 291°
2026-05-07 07:30 54.78178 -117.15423 29904 ft 452 kts 291°
2026-05-07 07:31 54.80399 -117.25595 29910 ft 452 kts 291°
2026-05-07 07:31 54.82621 -117.35821 29909 ft 453 kts 291°
2026-05-07 07:32 54.84834 -117.46057 29907 ft 453 kts 291°
2026-05-07 07:32 54.87025 -117.56240 29918 ft 453 kts 290°
2026-05-07 07:33 54.89224 -117.66512 29910 ft 454 kts 290°
2026-05-07 07:33 54.91417 -117.76810 29912 ft 454 kts 290°
2026-05-07 07:34 54.93598 -117.87103 29915 ft 454 kts 290°
2026-05-07 07:34 54.95777 -117.97439 29916 ft 454 kts 290°
2026-05-07 07:35 54.97941 -118.07753 29912 ft 453 kts 290°
2026-05-07 07:35 55.00080 -118.18002 29911 ft 452 kts 290°
2026-05-07 07:36 55.02218 -118.28300 29916 ft 452 kts 290°
2026-05-07 07:36 55.04342 -118.38584 29907 ft 451 kts 290°
2026-05-07 07:37 55.06459 -118.48887 29901 ft 451 kts 290°
2026-05-07 07:37 55.08555 -118.59143 29905 ft 446 kts 291°
2026-05-07 07:38 55.10622 -118.69302 29892 ft 441 kts 291°
2026-05-07 07:38 55.12662 -118.79383 29891 ft 438 kts 291°
2026-05-07 07:39 55.14681 -118.89410 29897 ft 437 kts 291°
2026-05-07 07:39 55.16693 -118.99443 29902 ft 438 kts 291°
2026-05-07 07:40 55.19167 -119.09162 29923 ft 438 kts 298°
2026-05-07 07:40 55.22005 -119.18638 29919 ft 440 kts 298°
2026-05-07 07:41 55.24800 -119.28109 29923 ft 441 kts 298°
2026-05-07 07:41 55.27608 -119.37701 29919 ft 442 kts 298°
2026-05-07 07:42 55.30369 -119.47181 29898 ft 431 kts 298°
2026-05-07 07:42 55.33088 -119.56554 29914 ft 431 kts 298°
2026-05-07 07:43 55.35811 -119.65975 29922 ft 432 kts 298°
2026-05-07 07:43 55.38531 -119.75420 29915 ft 433 kts 297°
2026-05-07 07:44 55.41246 -119.84890 29909 ft 433 kts 297°
2026-05-07 07:44 55.43931 -119.94295 29908 ft 432 kts 297°
2026-05-07 07:45 55.46621 -120.03753 29913 ft 431 kts 297°
2026-05-07 07:45 55.49294 -120.13194 29904 ft 430 kts 297°
2026-05-07 07:46 55.51959 -120.22641 29914 ft 430 kts 297°
2026-05-07 07:46 55.54620 -120.32112 29913 ft 429 kts 297°
2026-05-07 07:47 55.57250 -120.41513 29898 ft 429 kts 297°
2026-05-07 07:47 55.59887 -120.50976 29904 ft 429 kts 296°
2026-05-07 07:48 55.62520 -120.60461 29908 ft 429 kts 296°
2026-05-07 07:48 55.65146 -120.69963 29910 ft 429 kts 296°
2026-05-07 07:49 55.67765 -120.79481 29938 ft 430 kts 296°
2026-05-07 07:49 55.70362 -120.88964 29938 ft 430 kts 296°
2026-05-07 07:50 55.72977 -120.98545 29928 ft 431 kts 296°
2026-05-07 07:50 55.75583 -121.08129 29923 ft 432 kts 296°
2026-05-07 07:51 55.78184 -121.17742 29937 ft 432 kts 296°
2026-05-07 07:51 55.80781 -121.27382 29943 ft 432 kts 296°
2026-05-07 07:52 55.82931 -121.35396 29955 ft 432 kts 296°
2026-05-07 07:52 55.85523 -121.45075 29935 ft 436 kts 295°
2026-05-07 07:53 55.88126 -121.54849 29953 ft 437 kts 295°
2026-05-07 07:53 55.90723 -121.64650 29957 ft 438 kts 295°
2026-05-07 07:54 55.93313 -121.74467 29958 ft 438 kts 295°
2026-05-07 07:54 55.95900 -121.84307 29957 ft 437 kts 295°
2026-05-07 07:55 55.98455 -121.94066 29975 ft 436 kts 295°
2026-05-07 07:55 56.01242 -122.03684 29979 ft 436 kts 301°
2026-05-07 07:56 56.04516 -122.12824 30402 ft 436 kts 301°
2026-05-07 07:56 56.06133 -122.17381 30849 ft 432 kts 301°
2026-05-07 07:56 56.07730 -122.21905 31302 ft 428 kts 301°
2026-05-07 07:56 56.09311 -122.26400 31687 ft 425 kts 301°
2026-05-07 07:57 56.10886 -122.30893 31914 ft 425 kts 301°
2026-05-07 07:57 56.14031 -122.39899 31999 ft 426 kts 301°
2026-05-07 07:58 56.17175 -122.48932 32007 ft 425 kts 301°
2026-05-07 07:58 56.20287 -122.57905 32011 ft 428 kts 300°
2026-05-07 07:59 56.23435 -122.67024 31988 ft 430 kts 300°
2026-05-07 07:59 56.26584 -122.76179 32015 ft 431 kts 300°
2026-05-07 08:00 56.29739 -122.85359 32016 ft 431 kts 300°
2026-05-07 08:00 56.32884 -122.94531 32033 ft 427 kts 300°
2026-05-07 08:01 56.35964 -123.03645 32027 ft 425 kts 300°
2026-05-07 08:01 56.39039 -123.12707 32025 ft 423 kts 300°
2026-05-07 08:02 56.42087 -123.21719 32031 ft 423 kts 300°
2026-05-07 08:02 56.45149 -123.30817 32025 ft 424 kts 299°
2026-05-07 08:03 56.48211 -123.39957 32033 ft 426 kts 299°
2026-05-07 08:03 56.51285 -123.49135 32016 ft 426 kts 299°
2026-05-07 08:04 56.54339 -123.58342 31998 ft 427 kts 299°
2026-05-07 08:04 56.57396 -123.67581 31987 ft 428 kts 299°
2026-05-07 08:05 56.60453 -123.76844 32008 ft 428 kts 299°
2026-05-07 08:05 56.63510 -123.86130 31991 ft 428 kts 298°
2026-05-07 08:06 56.66543 -123.95382 32003 ft 428 kts 298°
2026-05-07 08:06 56.69589 -124.04697 31997 ft 427 kts 298°
2026-05-07 08:07 56.72621 -124.14041 32003 ft 430 kts 298°
2026-05-07 08:07 56.75658 -124.23440 32029 ft 431 kts 298°
2026-05-07 08:08 56.78697 -124.32885 32022 ft 431 kts 298°
2026-05-07 08:08 56.81734 -124.42311 32015 ft 431 kts 298°
2026-05-07 08:09 56.84759 -124.51763 32021 ft 429 kts 298°
2026-05-07 08:09 56.87726 -124.61180 31961 ft 424 kts 298°
2026-05-07 08:10 56.90671 -124.70392 32019 ft 425 kts 298°
2026-05-07 08:10 56.93667 -124.79825 32039 ft 430 kts 298°
2026-05-07 08:11 56.96656 -124.89334 32044 ft 432 kts 297°
2026-05-07 08:11 56.99658 -124.98870 32049 ft 431 kts 295°
2026-05-07 08:12 57.02023 -125.08948 32043 ft 430 kts 290°
2026-05-07 08:12 57.04276 -125.19103 32039 ft 430 kts 290°
2026-05-07 08:13 57.06548 -125.29251 32047 ft 429 kts 290°
2026-05-07 08:13 57.08812 -125.39417 32052 ft 429 kts 290°
2026-05-07 08:14 57.11045 -125.49509 32076 ft 429 kts 290°
2026-05-07 08:14 57.13283 -125.59683 32052 ft 428 kts 290°
2026-05-07 08:15 57.15504 -125.69847 32062 ft 428 kts 290°
2026-05-07 08:15 57.17719 -125.80005 32052 ft 427 kts 290°
2026-05-07 08:16 57.19919 -125.90190 32060 ft 428 kts 289°
2026-05-07 08:16 57.22123 -126.00405 32040 ft 428 kts 290°
2026-05-07 08:17 57.24312 -126.10532 32075 ft 427 kts 289°
2026-05-07 08:17 57.26481 -126.20747 32063 ft 428 kts 289°
2026-05-07 08:18 57.28657 -126.30979 32032 ft 429 kts 289°
2026-05-07 08:18 57.30843 -126.41282 32102 ft 431 kts 289°
2026-05-07 08:19 57.33021 -126.51680 32120 ft 434 kts 289°
2026-05-07 08:19 57.35206 -126.62137 32104 ft 435 kts 289°
2026-05-07 08:20 57.37388 -126.72582 32137 ft 434 kts 289°
2026-05-07 08:20 57.39551 -126.83019 32099 ft 432 kts 289°
2026-05-07 08:21 57.41686 -126.93388 32111 ft 428 kts 289°
2026-05-07 08:21 57.43797 -127.03690 32080 ft 426 kts 288°
2026-05-07 08:22 57.45892 -127.13947 32114 ft 424 kts 288°
2026-05-07 08:22 57.47972 -127.24208 32116 ft 425 kts 288°
2026-05-07 08:23 57.50035 -127.34433 32163 ft 425 kts 288°
2026-05-07 08:23 57.52110 -127.44768 32120 ft 427 kts 288°
2026-05-07 08:24 57.54180 -127.55137 32127 ft 429 kts 288°
2026-05-07 08:24 57.56254 -127.65556 32118 ft 430 kts 288°
2026-05-07 08:25 57.58321 -127.76034 32143 ft 431 kts 288°
2026-05-07 08:25 57.60386 -127.86542 32133 ft 432 kts 288°
2026-05-07 08:26 57.63477 -128.02352 32144 ft 432 kts 287°
2026-05-07 08:26 57.65504 -128.12805 32140 ft 430 kts 287°
2026-05-07 08:27 57.67532 -128.23321 32144 ft 428 kts 287°
2026-05-07 08:27 57.69539 -128.33784 32141 ft 427 kts 287°
2026-05-07 08:28 57.71535 -128.44224 32139 ft 426 kts 287°
2026-05-07 08:28 57.73513 -128.54645 32155 ft 425 kts 287°
2026-05-07 08:29 57.75480 -128.65073 32148 ft 425 kts 287°
2026-05-07 08:29 57.77442 -128.75517 32154 ft 424 kts 287°
2026-05-07 08:30 57.79386 -128.85924 32155 ft 424 kts 287°
2026-05-07 08:30 57.81313 -128.96294 32163 ft 424 kts 287°
2026-05-07 08:31 57.83247 -129.06767 32165 ft 424 kts 287°
2026-05-07 08:31 57.85172 -129.17251 32155 ft 425 kts 286°
2026-05-07 08:32 57.87094 -129.27772 32159 ft 426 kts 286°
2026-05-07 08:32 57.89009 -129.38312 32160 ft 426 kts 286°
2026-05-07 08:33 57.90917 -129.48864 32162 ft 427 kts 286°
2026-05-07 08:33 57.92805 -129.59383 32168 ft 427 kts 286°
2026-05-07 08:34 57.94699 -129.69995 32158 ft 427 kts 285°
2026-05-07 08:34 57.96578 -129.80565 32162 ft 425 kts 285°
2026-05-07 08:35 57.98443 -129.91136 32202 ft 425 kts 285°
2026-05-07 08:35 58.00346 -130.01688 32172 ft 426 kts 288°
2026-05-07 08:36 58.02579 -130.12056 32173 ft 426 kts 289°
2026-05-07 08:36 58.04824 -130.22382 32182 ft 425 kts 289°
2026-05-07 08:37 58.07044 -130.32692 32181 ft 424 kts 288°
2026-05-07 08:37 58.09235 -130.42955 32185 ft 424 kts 288°
2026-05-07 08:38 58.11432 -130.53314 32182 ft 424 kts 288°
2026-05-07 08:38 58.13618 -130.63672 32190 ft 424 kts 288°
2026-05-07 08:39 58.15800 -130.74065 32180 ft 424 kts 288°
2026-05-07 08:39 58.17975 -130.84438 32197 ft 423 kts 288°
2026-05-07 08:40 58.20131 -130.94837 32199 ft 423 kts 288°
2026-05-07 08:40 58.22270 -131.05186 32181 ft 424 kts 288°
2026-05-07 08:41 58.24421 -131.15634 32201 ft 425 kts 288°
2026-05-07 08:41 58.26569 -131.26129 32199 ft 427 kts 287°
2026-05-07 08:42 58.28715 -131.36664 32203 ft 428 kts 287°
2026-05-07 08:42 58.30497 -131.45449 32203 ft 429 kts 287°
2026-05-07 08:43 58.32623 -131.56048 32199 ft 429 kts 287°
2026-05-07 08:43 58.34597 -131.66732 32201 ft 428 kts 285°
2026-05-07 08:44 58.36527 -131.77491 32187 ft 429 kts 285°
2026-05-07 08:44 58.38456 -131.88231 32210 ft 428 kts 285°
2026-05-07 08:45 58.40387 -131.98973 32188 ft 429 kts 285°
2026-05-07 08:45 58.42317 -132.09750 32204 ft 429 kts 285°
2026-05-07 08:46 58.44233 -132.20483 32215 ft 427 kts 285°
2026-05-07 08:46 58.46119 -132.31153 32211 ft 426 kts 285°
2026-05-07 08:47 58.48011 -132.41910 32236 ft 428 kts 285°
2026-05-07 08:47 58.49901 -132.52689 32239 ft 427 kts 285°
2026-05-07 08:48 58.51776 -132.63468 32250 ft 427 kts 285°
2026-05-07 08:48 58.53643 -132.74266 32254 ft 427 kts 285°
2026-05-07 08:49 58.55492 -132.85032 32241 ft 428 kts 285°
2026-05-07 08:49 58.57351 -132.95863 32279 ft 427 kts 285°
2026-05-07 08:50 58.59192 -133.06718 32283 ft 428 kts 285°
2026-05-07 08:50 58.61024 -133.17593 32283 ft 429 kts 285°
2026-05-07 08:51 58.62859 -133.28509 32262 ft 430 kts 284°
2026-05-07 08:51 58.64679 -133.39417 32281 ft 430 kts 284°
2026-05-07 08:52 58.66494 -133.50356 32273 ft 430 kts 284°
2026-05-07 08:52 58.68301 -133.61321 32291 ft 430 kts 284°
2026-05-07 08:53 58.70086 -133.72211 32292 ft 430 kts 284°
2026-05-07 08:53 58.71870 -133.83151 32287 ft 428 kts 284°
2026-05-07 08:54 58.73635 -133.94089 32250 ft 427 kts 284°
2026-05-07 08:54 58.75386 -134.04987 32299 ft 426 kts 284°
2026-05-07 08:55 58.77130 -134.15890 32290 ft 425 kts 284°
2026-05-07 08:55 58.78859 -134.26783 32280 ft 425 kts 284°
2026-05-07 08:56 58.80581 -134.37694 32279 ft 426 kts 284°
2026-05-07 08:56 58.82295 -134.48653 32271 ft 427 kts 284°
2026-05-07 08:57 58.84000 -134.59595 32294 ft 430 kts 283°
2026-05-07 08:57 58.85717 -134.70694 32304 ft 432 kts 283°
2026-05-07 08:58 58.87431 -134.81830 32277 ft 433 kts 283°
2026-05-07 08:58 58.89141 -134.93020 32265 ft 434 kts 283°
2026-05-07 08:59 58.90842 -135.04222 32242 ft 434 kts 283°
2026-05-07 08:59 58.92525 -135.15400 32285 ft 432 kts 282°
2026-05-07 09:00 58.94182 -135.26516 32266 ft 431 kts 282°
2026-05-07 09:00 58.95841 -135.37662 32265 ft 430 kts 282°
2026-05-07 09:01 58.97484 -135.48790 32275 ft 429 kts 282°
2026-05-07 09:01 58.99113 -135.59925 32271 ft 429 kts 282°
2026-05-07 09:02 59.00738 -135.71075 32263 ft 431 kts 282°
2026-05-07 09:02 59.02357 -135.82265 32257 ft 432 kts 282°
2026-05-07 09:03 59.03969 -135.93505 32262 ft 433 kts 282°
2026-05-07 09:03 59.05574 -136.04763 32264 ft 433 kts 282°
2026-05-07 09:04 59.07174 -136.16056 32273 ft 433 kts 282°
2026-05-07 09:04 59.08762 -136.27351 32276 ft 433 kts 282°
2026-05-07 09:05 59.10339 -136.38655 32270 ft 434 kts 282°
2026-05-07 09:05 59.11905 -136.49912 32274 ft 431 kts 281°
2026-05-07 09:06 59.13451 -136.61175 32270 ft 431 kts 281°
2026-05-07 09:06 59.14989 -136.72458 32278 ft 430 kts 281°
2026-05-07 09:07 59.16524 -136.83765 32245 ft 431 kts 281°
2026-05-07 09:07 59.18048 -136.95052 32260 ft 430 kts 281°
2026-05-07 09:08 59.19555 -137.06348 32264 ft 431 kts 281°
2026-05-07 09:08 59.21050 -137.17644 32255 ft 433 kts 281°
2026-05-07 09:09 59.22552 -137.29034 32273 ft 434 kts 281°
2026-05-07 09:09 59.24045 -137.40457 32255 ft 433 kts 281°
2026-05-07 09:10 59.25524 -137.51853 32255 ft 432 kts 281°
2026-05-07 09:10 59.26990 -137.63230 32278 ft 432 kts 281°
2026-05-07 09:11 59.28444 -137.74632 32264 ft 433 kts 281°
2026-05-07 09:11 59.29893 -137.86065 32279 ft 433 kts 281°
2026-05-07 09:12 59.31333 -137.97516 32271 ft 433 kts 280°
2026-05-07 09:12 59.32757 -138.08925 32273 ft 434 kts 280°
2026-05-07 09:13 59.34178 -138.20399 32275 ft 434 kts 280°
2026-05-07 09:13 59.35593 -138.31915 32281 ft 433 kts 280°
2026-05-07 09:14 59.36991 -138.43395 32291 ft 432 kts 280°
2026-05-07 09:14 59.38365 -138.54769 32293 ft 431 kts 280°
2026-05-07 09:15 59.39741 -138.66245 32267 ft 432 kts 280°
2026-05-07 09:15 59.41110 -138.77754 32273 ft 433 kts 279°
2026-05-07 09:16 59.42471 -138.89285 32288 ft 434 kts 279°
2026-05-07 09:16 59.43821 -139.00840 32258 ft 434 kts 279°
2026-05-07 09:17 59.45164 -139.12419 32282 ft 435 kts 279°
2026-05-07 09:17 59.46502 -139.24046 32247 ft 436 kts 279°
2026-05-07 09:18 59.47827 -139.35663 32259 ft 435 kts 279°
2026-05-07 09:18 59.49133 -139.47205 32262 ft 435 kts 279°
2026-05-07 09:19 59.50437 -139.58822 32260 ft 435 kts 279°
2026-05-07 09:19 59.52229 -139.70249 32258 ft 439 kts 289°
2026-05-07 09:20 59.54687 -139.81290 32277 ft 440 kts 289°
2026-05-07 09:20 59.57122 -139.92385 32258 ft 440 kts 289°
2026-05-07 09:21 59.59530 -140.03486 32259 ft 440 kts 288°
2026-05-07 09:21 59.61922 -140.14593 32255 ft 439 kts 288°
2026-05-07 09:22 59.64301 -140.25697 32251 ft 439 kts 288°
2026-05-07 09:22 59.66655 -140.36746 32293 ft 439 kts 288°
2026-05-07 09:23 59.69017 -140.47888 32254 ft 439 kts 288°
2026-05-07 09:23 59.71368 -140.59040 32258 ft 439 kts 288°
2026-05-07 09:24 59.73714 -140.70230 32253 ft 439 kts 288°
2026-05-07 09:24 59.76048 -140.81420 32251 ft 439 kts 288°
2026-05-07 09:25 59.78374 -140.92634 32250 ft 439 kts 288°
2026-05-07 09:25 59.80691 -141.03870 32254 ft 440 kts 288°
2026-05-07 09:26 59.82989 -141.15072 32255 ft 440 kts 287°
2026-05-07 09:26 59.85303 -141.26413 32250 ft 440 kts 287°
2026-05-07 09:27 59.87583 -141.37652 32249 ft 440 kts 287°
2026-05-07 09:28 59.90994 -141.54587 32237 ft 439 kts 287°
2026-05-07 09:28 59.93259 -141.65922 32250 ft 440 kts 287°
2026-05-07 09:29 59.95522 -141.77290 32248 ft 441 kts 287°
2026-05-07 09:29 59.97766 -141.88632 32240 ft 442 kts 287°
2026-05-07 09:30 60.00015 -142.00062 32239 ft 442 kts 287°
2026-05-07 09:30 60.02246 -142.11528 32232 ft 443 kts 287°
2026-05-07 09:31 60.04466 -142.23034 32237 ft 444 kts 287°
2026-05-07 09:31 60.06681 -142.34581 32235 ft 445 kts 287°
2026-05-07 09:32 60.08896 -142.46183 32232 ft 447 kts 287°
2026-05-07 09:32 60.10732 -142.55853 32229 ft 447 kts 287°
2026-05-07 09:33 60.12936 -142.67522 32225 ft 447 kts 287°
2026-05-07 09:33 60.15131 -142.79211 32224 ft 447 kts 287°
2026-05-07 09:34 60.17315 -142.90919 32236 ft 448 kts 287°
2026-05-07 09:34 60.19481 -143.02598 32230 ft 449 kts 287°
2026-05-07 09:35 60.21653 -143.14381 32233 ft 449 kts 287°
2026-05-07 09:35 60.23812 -143.26165 32222 ft 449 kts 287°
2026-05-07 09:36 60.25964 -143.37984 32224 ft 449 kts 287°
2026-05-07 09:36 60.28106 -143.49821 32220 ft 449 kts 287°
2026-05-07 09:37 60.30238 -143.61676 32214 ft 449 kts 287°
2026-05-07 09:37 60.32356 -143.73528 32214 ft 449 kts 286°
2026-05-07 09:38 60.34451 -143.85326 32214 ft 449 kts 286°
2026-05-07 09:38 60.36548 -143.97209 32212 ft 449 kts 286°
2026-05-07 09:39 60.38636 -144.09110 32256 ft 448 kts 286°
2026-05-07 09:39 60.40702 -144.20991 32235 ft 448 kts 286°
2026-05-07 09:40 60.42762 -144.32909 32224 ft 448 kts 286°
2026-05-07 09:40 60.44816 -144.44813 32218 ft 448 kts 286°
2026-05-07 09:41 60.46847 -144.56677 32212 ft 448 kts 285°
2026-05-07 09:41 60.48879 -144.68655 32211 ft 449 kts 285°
2026-05-07 09:42 60.50897 -144.80625 32215 ft 449 kts 285°
2026-05-07 09:42 60.52912 -144.92650 32213 ft 449 kts 285°
2026-05-07 09:43 60.54910 -145.04652 32200 ft 448 kts 285°
2026-05-07 09:43 60.56896 -145.16656 32202 ft 448 kts 285°
2026-05-07 09:44 60.58855 -145.28603 32210 ft 448 kts 285°
2026-05-07 09:44 60.60817 -145.40614 32229 ft 448 kts 285°
2026-05-07 09:45 60.62772 -145.52668 32216 ft 448 kts 284°
2026-05-07 09:45 60.64718 -145.64753 32210 ft 448 kts 284°
2026-05-07 09:46 60.66650 -145.76833 32211 ft 448 kts 284°
2026-05-07 09:46 60.68571 -145.88926 32199 ft 448 kts 284°
2026-05-07 09:47 60.70478 -146.01016 32200 ft 448 kts 284°
2026-05-07 09:47 60.72379 -146.13161 32195 ft 449 kts 284°
2026-05-07 09:48 60.74272 -146.25330 32189 ft 450 kts 284°
2026-05-07 09:48 60.76158 -146.37539 32189 ft 450 kts 284°
2026-05-07 09:49 60.78022 -146.49692 32179 ft 450 kts 284°
2026-05-07 09:49 60.79886 -146.61930 32162 ft 450 kts 284°
2026-05-07 09:50 60.81734 -146.74152 32196 ft 450 kts 284°
2026-05-07 09:50 60.83577 -146.86431 32180 ft 451 kts 284°
2026-05-07 09:51 60.85414 -146.98759 32176 ft 452 kts 284°
2026-05-07 09:51 60.87242 -147.11110 32173 ft 452 kts 284°
2026-05-07 09:52 60.89057 -147.23472 32176 ft 452 kts 283°
2026-05-07 09:52 60.90863 -147.35862 32165 ft 453 kts 283°
2026-05-07 09:53 60.92659 -147.48270 32173 ft 453 kts 283°
2026-05-07 09:53 60.94432 -147.60617 32164 ft 453 kts 283°
2026-05-07 09:54 60.96206 -147.73064 32161 ft 453 kts 283°
2026-05-07 09:54 60.97968 -147.85505 32156 ft 452 kts 283°
2026-05-07 09:55 60.99717 -147.97966 32155 ft 453 kts 283°
2026-05-07 09:55 61.01026 -148.10595 32156 ft 451 kts 278°
2026-05-07 09:56 61.02170 -148.23325 32145 ft 451 kts 278°
2026-05-07 09:56 61.03318 -148.36078 32136 ft 452 kts 278°
2026-05-07 09:57 61.04465 -148.48832 32144 ft 452 kts 278°
2026-05-07 09:57 61.05602 -148.61599 32151 ft 452 kts 278°
2026-05-07 09:58 61.06722 -148.74306 32131 ft 452 kts 278°
2026-05-07 09:58 61.07835 -148.87083 32134 ft 452 kts 278°
2026-05-07 09:59 61.08937 -148.99875 32098 ft 451 kts 277°
2026-05-07 09:59 61.10022 -149.12644 32114 ft 451 kts 277°
2026-05-07 10:00 61.11097 -149.25439 32117 ft 452 kts 277°
2026-05-07 10:00 61.12161 -149.38252 32122 ft 452 kts 277°
2026-05-07 10:01 61.13213 -149.51072 32131 ft 452 kts 277°
2026-05-07 10:01 61.14254 -149.63900 32101 ft 452 kts 277°
2026-05-07 10:02 61.15282 -149.76745 32104 ft 452 kts 277°
2026-05-07 10:02 61.16300 -149.89595 32085 ft 452 kts 277°
2026-05-07 10:03 61.17259 -150.02380 32087 ft 451 kts 275°
2026-05-07 10:03 61.18061 -150.15278 32094 ft 451 kts 275°
2026-05-07 10:04 61.18832 -150.28159 32095 ft 450 kts 275°
2026-05-07 10:04 61.19609 -150.41044 32095 ft 450 kts 275°
2026-05-07 10:05 61.20383 -150.53933 32094 ft 450 kts 275°
2026-05-07 10:05 61.21144 -150.66759 32096 ft 450 kts 275°
2026-05-07 10:06 61.21901 -150.79752 32095 ft 451 kts 275°
2026-05-07 10:06 61.22634 -150.92563 32101 ft 451 kts 275°
2026-05-07 10:07 61.23366 -151.05573 32093 ft 451 kts 274°
2026-05-07 10:07 61.24079 -151.18456 32098 ft 452 kts 274°
2026-05-07 10:08 61.24783 -151.31423 32093 ft 453 kts 274°
2026-05-07 10:08 61.25478 -151.44440 32088 ft 453 kts 274°
2026-05-07 10:09 61.26160 -151.57454 32090 ft 453 kts 274°
2026-05-07 10:09 61.26829 -151.70484 32107 ft 453 kts 274°
2026-05-07 10:10 61.27488 -151.83535 32095 ft 454 kts 274°
2026-05-07 10:10 61.28133 -151.96548 32092 ft 456 kts 274°
2026-05-07 10:11 61.28402 -152.09691 32084 ft 455 kts 269°
2026-05-07 10:11 61.28445 -152.22838 32096 ft 455 kts 269°
2026-05-07 10:12 61.28483 -152.36004 32101 ft 455 kts 269°
2026-05-07 10:12 61.28522 -152.49181 32124 ft 456 kts 269°
2026-05-07 10:13 61.28554 -152.62392 32100 ft 457 kts 269°
2026-05-07 10:13 61.28574 -152.75625 32092 ft 457 kts 269°
2026-05-07 10:14 61.28580 -152.88849 32114 ft 458 kts 269°
2026-05-07 10:14 61.28572 -153.02090 32114 ft 458 kts 269°
2026-05-07 10:15 61.28552 -153.15244 32113 ft 458 kts 269°
2026-05-07 10:15 61.28519 -153.28482 32112 ft 458 kts 269°
2026-05-07 10:16 61.28473 -153.41740 32114 ft 458 kts 269°
2026-05-07 10:16 61.28414 -153.55029 32114 ft 459 kts 269°
2026-05-07 10:17 61.28343 -153.68301 32102 ft 459 kts 269°
2026-05-07 10:17 61.28257 -153.81574 32097 ft 460 kts 269°
2026-05-07 10:18 61.28160 -153.94793 32113 ft 460 kts 269°
2026-05-07 10:18 61.28049 -154.08099 32096 ft 461 kts 269°
2026-05-07 10:19 61.27925 -154.21417 32080 ft 461 kts 269°
2026-05-07 10:19 61.27787 -154.34739 32089 ft 461 kts 269°
2026-05-07 10:20 61.27637 -154.48072 32102 ft 461 kts 269°
2026-05-07 10:20 61.27474 -154.61403 32099 ft 462 kts 269°
2026-05-07 10:21 61.27297 -154.74742 32093 ft 461 kts 268°
2026-05-07 10:21 61.27139 -154.85846 32098 ft 461 kts 269°
2026-05-07 10:22 61.26939 -154.99173 32091 ft 461 kts 269°
2026-05-07 10:22 61.26689 -155.14664 32096 ft 461 kts 269°
2026-05-07 10:23 61.26500 -155.25751 32090 ft 461 kts 268°
2026-05-07 10:23 61.26261 -155.39060 32093 ft 461 kts 268°
2026-05-07 10:24 61.26008 -155.52384 32094 ft 461 kts 268°
2026-05-07 10:24 61.25742 -155.65706 32089 ft 461 kts 268°
2026-05-07 10:25 61.25466 -155.78921 32084 ft 460 kts 269°
2026-05-07 10:25 61.25178 -155.92210 32095 ft 461 kts 268°
2026-05-07 10:26 61.24992 -156.05494 32099 ft 460 kts 271°
2026-05-07 10:26 61.25073 -156.18788 32102 ft 460 kts 272°
2026-05-07 10:27 61.25163 -156.32093 32103 ft 461 kts 271°
2026-05-07 10:27 61.25228 -156.45408 32105 ft 461 kts 272°
2026-05-07 10:28 61.25271 -156.58743 32107 ft 461 kts 271°
2026-05-07 10:28 61.25297 -156.71989 32104 ft 461 kts 271°
2026-05-07 10:29 61.25310 -156.85286 32108 ft 461 kts 271°
2026-05-07 10:29 61.25311 -156.98611 32109 ft 461 kts 271°
2026-05-07 10:30 61.25287 -157.18579 32111 ft 460 kts 271°
2026-05-07 10:30 61.25255 -157.31868 32116 ft 460 kts 271°
2026-05-07 10:31 61.25211 -157.45159 32113 ft 460 kts 271°
2026-05-07 10:31 61.25153 -157.58461 32117 ft 460 kts 271°
2026-05-07 10:32 61.25082 -157.71739 32113 ft 460 kts 271°
2026-05-07 10:32 61.24998 -157.85059 32121 ft 461 kts 271°
2026-05-07 10:33 61.24902 -157.98325 32130 ft 462 kts 271°
2026-05-07 10:33 61.24791 -158.11699 32137 ft 462 kts 271°
2026-05-07 10:34 61.24668 -158.25036 32132 ft 463 kts 271°
2026-05-07 10:34 61.24531 -158.38400 32126 ft 463 kts 271°
2026-05-07 10:35 61.24382 -158.51681 32126 ft 462 kts 270°
2026-05-07 10:35 61.24219 -158.65022 32124 ft 462 kts 271°
2026-05-07 10:36 61.24043 -158.78377 32137 ft 462 kts 271°
2026-05-07 10:36 61.23854 -158.91709 32144 ft 462 kts 271°
2026-05-07 10:37 61.23652 -159.05035 32134 ft 462 kts 271°
2026-05-07 10:37 61.23437 -159.18378 32130 ft 462 kts 270°
2026-05-07 10:38 61.23209 -159.31698 32133 ft 461 kts 270°
2026-05-07 10:38 61.22968 -159.45021 32120 ft 462 kts 271°
2026-05-07 10:39 61.22715 -159.58303 32121 ft 464 kts 271°
2026-05-07 10:39 61.22444 -159.71706 32127 ft 465 kts 271°
2026-05-07 10:40 61.22163 -159.85177 32126 ft 467 kts 270°
2026-05-07 10:40 61.21868 -159.98573 32124 ft 468 kts 270°
2026-05-07 10:41 61.21555 -160.12089 32123 ft 468 kts 270°
2026-05-07 10:41 61.21229 -160.25601 32124 ft 468 kts 271°
2026-05-07 10:42 61.20892 -160.39099 32128 ft 469 kts 271°
2026-05-07 10:42 61.20541 -160.52609 32133 ft 469 kts 271°
2026-05-07 10:43 61.20175 -160.66135 32135 ft 469 kts 270°
2026-05-07 10:43 61.19798 -160.79558 32144 ft 469 kts 270°
2026-05-07 10:44 61.19405 -160.93069 32124 ft 469 kts 271°
2026-05-07 10:44 61.18999 -161.06600 32135 ft 470 kts 270°
2026-05-07 10:45 61.18578 -161.20155 32148 ft 472 kts 270°
2026-05-07 10:45 61.18142 -161.33774 32155 ft 474 kts 270°
2026-05-07 10:46 61.17690 -161.47445 32162 ft 476 kts 270°
2026-05-07 10:46 61.17226 -161.61055 32158 ft 477 kts 270°
2026-05-07 10:47 61.16743 -161.74775 32172 ft 478 kts 271°
2026-05-07 10:47 61.16246 -161.88526 32178 ft 479 kts 270°
2026-05-07 10:48 61.15736 -162.02274 32185 ft 479 kts 270°
2026-05-07 10:48 61.15210 -162.16031 32180 ft 479 kts 270°
2026-05-07 10:49 61.14670 -162.29799 32188 ft 479 kts 270°
2026-05-07 10:49 61.14121 -162.43448 32156 ft 479 kts 270°
2026-05-07 10:50 61.13555 -162.57174 32178 ft 479 kts 270°
2026-05-07 10:50 61.12975 -162.70908 32186 ft 479 kts 270°
2026-05-07 10:51 61.12382 -162.84658 32191 ft 480 kts 270°
2026-05-07 10:51 61.11722 -162.98416 32187 ft 483 kts 266°
2026-05-07 10:52 61.10129 -163.12013 32192 ft 489 kts 258°
2026-05-07 10:52 61.08184 -163.25448 32202 ft 490 kts 258°
2026-05-07 10:53 61.06250 -163.38936 32196 ft 491 kts 259°
2026-05-07 10:53 61.04326 -163.52455 32194 ft 491 kts 259°
2026-05-07 10:54 61.02392 -163.65991 32197 ft 492 kts 258°
2026-05-07 10:54 61.00439 -163.79540 32196 ft 493 kts 258°
2026-05-07 10:55 60.98473 -163.93062 32192 ft 493 kts 258°
2026-05-07 10:55 60.96493 -164.06563 32183 ft 492 kts 258°
2026-05-07 10:56 60.94510 -164.19977 32196 ft 493 kts 258°
2026-05-07 10:56 60.92503 -164.33452 32199 ft 494 kts 258°
2026-05-07 10:57 60.90473 -164.46969 32197 ft 495 kts 257°
2026-05-07 10:57 60.88429 -164.60474 32196 ft 495 kts 257°
2026-05-07 10:58 60.86366 -164.73991 32196 ft 496 kts 257°
2026-05-07 10:58 60.84296 -164.87465 32191 ft 495 kts 257°
2026-05-07 10:59 60.82211 -165.00934 32201 ft 496 kts 257°
2026-05-07 10:59 60.80110 -165.14369 32172 ft 496 kts 256°
2026-05-07 11:00 60.77989 -165.27823 32200 ft 496 kts 256°
2026-05-07 11:00 60.75857 -165.41256 32190 ft 497 kts 256°
2026-05-07 11:01 60.73709 -165.54699 32187 ft 498 kts 256°
2026-05-07 11:01 60.71542 -165.68154 32183 ft 498 kts 256°
2026-05-07 11:02 60.69378 -165.81488 32180 ft 498 kts 256°
2026-05-07 11:02 60.67183 -165.94918 32180 ft 498 kts 256°
2026-05-07 11:03 60.64977 -166.08313 32180 ft 498 kts 256°
2026-05-07 11:03 60.62758 -166.21686 32180 ft 498 kts 255°
2026-05-07 11:04 60.60537 -166.34976 32163 ft 498 kts 255°
2026-05-07 11:04 60.58282 -166.48367 32174 ft 498 kts 255°
2026-05-07 11:05 60.56033 -166.61628 32183 ft 499 kts 255°
2026-05-07 11:05 60.53758 -166.74947 32186 ft 499 kts 255°
2026-05-07 11:06 60.51459 -166.88308 32371 ft 502 kts 254°
2026-05-07 11:06 60.50302 -166.94995 32714 ft 502 kts 254°
2026-05-07 11:06 60.49160 -167.01571 33055 ft 500 kts 254°
2026-05-07 11:07 60.47999 -167.08231 33366 ft 499 kts 254°
2026-05-07 11:07 60.46836 -167.14879 33643 ft 499 kts 254°
2026-05-07 11:07 60.45675 -167.21498 33910 ft 500 kts 254°
2026-05-07 11:07 60.44507 -167.28132 34106 ft 501 kts 254°
2026-05-07 11:08 60.42150 -167.41460 34185 ft 504 kts 253°
2026-05-07 11:08 60.39770 -167.54797 34173 ft 502 kts 253°
2026-05-07 11:09 60.37389 -167.68050 34176 ft 501 kts 253°
2026-05-07 11:09 60.35017 -167.81177 34177 ft 500 kts 253°
2026-05-07 11:10 60.32624 -167.94333 34173 ft 499 kts 253°
2026-05-07 11:10 60.30224 -168.07453 34177 ft 498 kts 253°
2026-05-07 11:11 60.27854 -168.20588 34178 ft 499 kts 253°
2026-05-07 11:11 60.25490 -168.33719 34180 ft 499 kts 253°
2026-05-07 11:12 60.23103 -168.46868 34172 ft 501 kts 253°
2026-05-07 11:12 60.21097 -168.57826 34178 ft 502 kts 252°
2026-05-07 11:13 60.18276 -168.73115 34187 ft 503 kts 252°
2026-05-07 11:13 60.16240 -168.84080 34188 ft 503 kts 252°
2026-05-07 11:14 60.13776 -168.97266 34174 ft 504 kts 252°
2026-05-07 11:14 60.11296 -169.10443 34172 ft 504 kts 252°
2026-05-07 11:15 60.08802 -169.23607 34174 ft 504 kts 252°
2026-05-07 11:15 60.06300 -169.36725 34170 ft 504 kts 251°
2026-05-07 11:16 60.03804 -169.49729 34180 ft 503 kts 251°
2026-05-07 11:16 60.01282 -169.62777 34177 ft 503 kts 251°
2026-05-07 11:17 59.98748 -169.75801 34182 ft 503 kts 251°
2026-05-07 11:17 59.96202 -169.88806 34177 ft 503 kts 250°
2026-05-07 11:18 59.93636 -170.01823 34181 ft 503 kts 250°
2026-05-07 11:18 59.91064 -170.14789 34171 ft 503 kts 250°
2026-05-07 11:19 59.88479 -170.27735 34175 ft 503 kts 250°
2026-05-07 11:19 59.85880 -170.40662 34178 ft 503 kts 250°
2026-05-07 11:20 59.83286 -170.53488 34180 ft 503 kts 250°
2026-05-07 11:20 59.80661 -170.66386 34179 ft 503 kts 249°
2026-05-07 11:21 59.78021 -170.79269 34165 ft 504 kts 249°
2026-05-07 11:21 59.75370 -170.92130 34177 ft 503 kts 249°
2026-05-07 11:22 59.72703 -171.04984 34181 ft 504 kts 249°
2026-05-07 11:22 59.70020 -171.17835 34178 ft 504 kts 248°
2026-05-07 11:23 59.67348 -171.30553 34179 ft 504 kts 248°
2026-05-07 11:23 59.64645 -171.43343 34180 ft 504 kts 248°
2026-05-07 11:24 59.61925 -171.56131 34174 ft 503 kts 248°
2026-05-07 11:24 59.59208 -171.68832 34178 ft 502 kts 247°
2026-05-07 11:25 59.56493 -171.81451 34175 ft 501 kts 247°
2026-05-07 11:25 59.53770 -171.94096 34175 ft 501 kts 248°
2026-05-07 11:26 59.51162 -172.06834 34177 ft 500 kts 249°
2026-05-07 11:26 59.48596 -172.19530 34177 ft 499 kts 248°
2026-05-07 11:27 59.46005 -172.32196 34174 ft 499 kts 248°
2026-05-07 11:27 59.43404 -172.44757 34172 ft 498 kts 248°
2026-05-07 11:28 59.40777 -172.57342 34172 ft 498 kts 248°
2026-05-07 11:28 59.38138 -172.69913 34184 ft 497 kts 248°
2026-05-07 11:29 59.35494 -172.82434 34173 ft 496 kts 247°
2026-05-07 11:29 59.32866 -172.94808 34172 ft 494 kts 247°
2026-05-07 11:30 59.30216 -173.07210 34168 ft 493 kts 247°
2026-05-07 11:30 59.27559 -173.19569 34173 ft 492 kts 247°
2026-05-07 11:31 59.24894 -173.31892 34168 ft 492 kts 247°
2026-05-07 11:31 59.22218 -173.44191 34170 ft 492 kts 247°
2026-05-07 11:32 59.18182 -173.62610 34168 ft 492 kts 246°
2026-05-07 11:33 59.15478 -173.74859 34162 ft 492 kts 246°
2026-05-07 11:33 59.12761 -173.87100 34168 ft 492 kts 246°
2026-05-07 11:34 59.10036 -173.99301 34165 ft 491 kts 246°
2026-05-07 11:34 59.07303 -174.11480 34162 ft 491 kts 246°
2026-05-07 11:35 59.04563 -174.23639 34159 ft 491 kts 246°
2026-05-07 11:35 59.01909 -174.35778 34164 ft 491 kts 247°
2026-05-07 11:36 58.99267 -174.47984 34152 ft 490 kts 247°
2026-05-07 11:36 58.96608 -174.60155 34157 ft 490 kts 247°
2026-05-07 11:37 58.93924 -174.72323 34163 ft 490 kts 247°
2026-05-07 11:37 58.91237 -174.84417 34144 ft 488 kts 248°
2026-05-07 11:38 58.88556 -174.96416 34143 ft 484 kts 246°
2026-05-07 11:38 58.85904 -175.08224 34145 ft 481 kts 246°
2026-05-07 11:39 58.83233 -175.20045 34136 ft 479 kts 246°
2026-05-07 11:39 58.80560 -175.31811 34156 ft 478 kts 246°
2026-05-07 11:40 58.77879 -175.43551 34140 ft 479 kts 246°
2026-05-07 11:40 58.75177 -175.55317 34144 ft 480 kts 246°
2026-05-07 11:41 58.72462 -175.67066 34132 ft 481 kts 245°
2026-05-07 11:41 58.69723 -175.78866 34128 ft 484 kts 245°
2026-05-07 11:42 58.66980 -175.90610 34133 ft 486 kts 244°
2026-05-07 11:42 58.64192 -176.02486 34140 ft 488 kts 245°
2026-05-07 11:43 58.61387 -176.14373 34133 ft 489 kts 244°
2026-05-07 11:43 58.58560 -176.26277 34128 ft 490 kts 244°
2026-05-07 11:44 58.55726 -176.38150 34126 ft 490 kts 244°
2026-05-07 11:44 58.52884 -176.50003 34121 ft 490 kts 244°
2026-05-07 11:45 58.50032 -176.61822 34120 ft 489 kts 243°
2026-05-07 11:45 58.47185 -176.73557 34120 ft 488 kts 244°
2026-05-07 11:46 58.44316 -176.85312 34114 ft 488 kts 243°
2026-05-07 11:46 58.41439 -176.97048 34118 ft 488 kts 243°
2026-05-07 11:47 58.38554 -177.08770 34111 ft 488 kts 242°
2026-05-07 11:47 58.35657 -177.20475 34111 ft 488 kts 242°
2026-05-07 11:48 58.32752 -177.32181 34099 ft 489 kts 243°
2026-05-07 11:48 58.29839 -177.43862 34100 ft 489 kts 242°
2026-05-07 11:49 58.26935 -177.55449 34117 ft 489 kts 242°
2026-05-07 11:49 58.24002 -177.67091 34099 ft 490 kts 242°
2026-05-07 11:50 58.21049 -177.78750 34080 ft 490 kts 242°
2026-05-07 11:50 58.18086 -177.90388 34102 ft 489 kts 241°
2026-05-07 11:51 58.15115 -178.01995 34083 ft 490 kts 241°
2026-05-07 11:51 58.12130 -178.13597 34075 ft 490 kts 241°
2026-05-07 11:52 58.09140 -178.25172 34081 ft 490 kts 240°
2026-05-07 11:52 58.06149 -178.36663 34072 ft 490 kts 240°
2026-05-07 11:53 58.03136 -178.48188 34063 ft 490 kts 240°
2026-05-07 11:53 58.00107 -178.59719 34060 ft 490 kts 240°
2026-05-07 11:54 57.97071 -178.71217 34067 ft 490 kts 240°
2026-05-07 11:54 57.94025 -178.82698 34055 ft 490 kts 239°
2026-05-07 11:55 57.90967 -178.94162 34068 ft 490 kts 238°
2026-05-07 11:55 57.87899 -179.05606 34052 ft 489 kts 238°
2026-05-07 11:56 57.84847 -179.16936 34041 ft 488 kts 238°
2026-05-07 11:56 57.81774 -179.28287 34040 ft 487 kts 238°
2026-05-07 11:57 57.78692 -179.39610 34033 ft 486 kts 238°
2026-05-07 11:57 57.75608 -179.50884 34034 ft 486 kts 238°
2026-05-07 11:58 57.72521 -179.62114 34029 ft 486 kts 238°
2026-05-07 11:58 57.69422 -179.73337 34023 ft 486 kts 238°
2026-05-07 11:59 57.66308 -179.84555 34020 ft 486 kts 238°
2026-05-07 11:59 57.63186 -179.95746 34029 ft 486 kts 237°
2026-05-07 12:00 57.60048 179.93059 34018 ft 488 kts 237°
2026-05-07 12:00 57.56892 179.81858 34025 ft 488 kts 237°
2026-05-07 12:01 57.53721 179.70652 34021 ft 489 kts 237°
2026-05-07 12:01 57.50555 179.59520 34017 ft 490 kts 236°
2026-05-07 12:02 57.47350 179.48308 34003 ft 491 kts 236°
2026-05-07 12:02 57.44135 179.37107 34020 ft 491 kts 236°
2026-05-07 12:03 57.41450 179.27802 34006 ft 492 kts 236°
2026-05-07 12:03 57.38210 179.16622 34000 ft 493 kts 236°
2026-05-07 12:04 57.34956 179.05444 33994 ft 493 kts 235°
2026-05-07 12:04 57.31692 178.94287 33987 ft 493 kts 235°
2026-05-07 12:05 57.28419 178.83151 33988 ft 492 kts 235°
2026-05-07 12:05 57.25161 178.72116 33970 ft 492 kts 235°
2026-05-07 12:06 57.21881 178.61064 33974 ft 491 kts 234°
2026-05-07 12:06 57.18592 178.50032 33971 ft 490 kts 234°
2026-05-07 12:07 57.15297 178.39032 33963 ft 490 kts 234°
2026-05-07 12:07 57.11994 178.28060 33954 ft 490 kts 234°
2026-05-07 12:08 57.08679 178.17096 34002 ft 490 kts 234°
2026-05-07 12:08 57.05348 178.06136 33964 ft 491 kts 234°
2026-05-07 12:09 57.02025 177.95247 33950 ft 491 kts 234°
2026-05-07 12:09 56.98675 177.84320 33942 ft 491 kts 234°
2026-05-07 12:10 56.95312 177.73401 33942 ft 491 kts 234°
2026-05-07 12:10 56.91946 177.62524 33965 ft 492 kts 233°
2026-05-07 12:11 56.88552 177.51605 33938 ft 493 kts 233°
2026-05-07 12:11 56.85174 177.40780 33930 ft 493 kts 233°
2026-05-07 12:12 56.81758 177.29905 33926 ft 493 kts 233°
2026-05-07 12:12 56.78316 177.19061 33923 ft 494 kts 233°
2026-05-07 12:13 56.74858 177.08214 33955 ft 494 kts 234°
2026-05-07 12:13 56.71391 176.97380 33920 ft 495 kts 233°
2026-05-07 12:14 56.67916 176.86561 33903 ft 495 kts 233°
2026-05-07 12:14 56.64432 176.75760 33904 ft 495 kts 233°
2026-05-07 12:15 56.60961 176.65051 33896 ft 494 kts 233°
2026-05-07 12:15 56.57462 176.54308 33890 ft 494 kts 233°
2026-05-07 12:16 56.53954 176.43584 33891 ft 495 kts 233°
2026-05-07 12:16 56.50428 176.32851 33888 ft 495 kts 233°
2026-05-07 12:17 56.46924 176.22235 33876 ft 494 kts 233°
2026-05-07 12:17 56.43392 176.11580 33874 ft 494 kts 233°
2026-05-07 12:18 56.39849 176.00939 33868 ft 494 kts 233°
2026-05-07 12:18 56.36290 175.90301 33876 ft 495 kts 233°
2026-05-07 12:19 56.32717 175.79662 33860 ft 496 kts 233°
2026-05-07 12:19 56.29137 175.69051 33868 ft 496 kts 233°
2026-05-07 12:20 56.25545 175.58453 33850 ft 496 kts 233°
2026-05-07 12:20 56.21945 175.47876 33852 ft 496 kts 233°
2026-05-07 12:21 56.18357 175.37382 33853 ft 497 kts 233°
2026-05-07 12:21 56.14728 175.26813 33847 ft 497 kts 233°
2026-05-07 12:22 56.11089 175.16262 33840 ft 497 kts 233°
2026-05-07 12:22 56.07450 175.05756 33833 ft 497 kts 233°
2026-05-07 12:23 56.03800 174.95263 33827 ft 497 kts 233°
2026-05-07 12:23 56.00161 174.84850 33827 ft 496 kts 233°
2026-05-07 12:24 55.96495 174.74401 33827 ft 496 kts 233°
2026-05-07 12:24 55.92821 174.63976 33840 ft 496 kts 233°
2026-05-07 12:25 55.89139 174.53572 33827 ft 496 kts 233°
2026-05-07 12:25 55.85446 174.43182 33821 ft 496 kts 233°
2026-05-07 12:26 55.81770 174.32886 33826 ft 496 kts 233°
2026-05-07 12:26 55.78066 174.22552 33816 ft 495 kts 233°
2026-05-07 12:27 55.74356 174.12245 33813 ft 495 kts 233°
2026-05-07 12:27 55.70641 174.01966 33814 ft 495 kts 233°
2026-05-07 12:28 55.66914 173.91702 33806 ft 494 kts 233°
2026-05-07 12:28 55.63182 173.81468 33826 ft 494 kts 233°
2026-05-07 12:29 55.59444 173.71256 33802 ft 494 kts 233°
2026-05-07 12:29 55.55720 173.61125 33804 ft 494 kts 233°
2026-05-07 12:30 55.51965 173.50951 33791 ft 493 kts 233°
2026-05-07 12:30 55.48203 173.40802 33787 ft 493 kts 233°
2026-05-07 12:31 55.44446 173.30711 33805 ft 493 kts 233°
2026-05-07 12:31 55.40674 173.20621 33786 ft 492 kts 233°
2026-05-07 12:32 55.36925 173.10625 33788 ft 492 kts 233°
2026-05-07 12:32 55.33149 173.00603 33782 ft 491 kts 233°
2026-05-07 12:33 55.27472 172.85617 33777 ft 491 kts 233°
2026-05-07 12:33 55.23683 172.75663 33791 ft 490 kts 234°
2026-05-07 12:34 55.19886 172.65727 33775 ft 490 kts 233°
2026-05-07 12:34 55.16109 172.55882 33771 ft 490 kts 233°
2026-05-07 12:35 55.12310 172.46021 33771 ft 489 kts 233°
2026-05-07 12:35 55.08501 172.36173 33770 ft 489 kts 233°
2026-05-07 12:36 55.04680 172.26337 33775 ft 489 kts 233°
2026-05-07 12:36 55.00855 172.16521 33763 ft 489 kts 234°
2026-05-07 12:37 54.97027 172.06733 33761 ft 489 kts 234°
2026-05-07 12:37 54.93196 171.97047 33762 ft 488 kts 231°
2026-05-07 12:38 54.88938 171.87901 33759 ft 486 kts 228°
2026-05-07 12:38 54.84612 171.78868 33767 ft 486 kts 229°
2026-05-07 12:39 54.80286 171.69814 33750 ft 486 kts 229°
2026-05-07 12:39 54.75981 171.60794 33753 ft 486 kts 229°
2026-05-07 12:40 54.71666 171.51773 33747 ft 486 kts 229°
2026-05-07 12:40 54.67372 171.42828 33746 ft 485 kts 229°
2026-05-07 12:41 54.63051 171.33866 33757 ft 485 kts 229°
2026-05-07 12:41 54.58732 171.24940 33744 ft 484 kts 229°
2026-05-07 12:42 54.54419 171.16057 33745 ft 484 kts 229°
2026-05-07 12:42 54.50091 171.07177 33745 ft 484 kts 229°
2026-05-07 12:43 54.45747 170.98296 33748 ft 484 kts 229°
2026-05-07 12:43 54.41406 170.89452 33742 ft 484 kts 229°
2026-05-07 12:44 54.37051 170.80613 33746 ft 483 kts 229°
2026-05-07 12:44 54.32724 170.71863 33740 ft 479 kts 229°
2026-05-07 12:45 54.28434 170.63218 33748 ft 480 kts 229°
2026-05-07 12:45 54.24083 170.54480 33748 ft 483 kts 229°
2026-05-07 12:46 54.19718 170.45746 33740 ft 483 kts 229°
2026-05-07 12:46 54.15368 170.37073 33745 ft 480 kts 229°
2026-05-07 12:47 54.11041 170.28474 33748 ft 481 kts 229°
2026-05-07 12:47 54.06664 170.19807 33741 ft 481 kts 230°
2026-05-07 12:48 54.02292 170.11180 33744 ft 480 kts 230°
2026-05-07 12:48 53.97928 170.02599 33743 ft 480 kts 230°
2026-05-07 12:49 53.93559 169.94039 33745 ft 482 kts 229°
2026-05-07 12:49 53.89166 169.85462 33745 ft 481 kts 229°
2026-05-07 12:50 53.84779 169.76926 33743 ft 479 kts 229°
2026-05-07 12:50 53.80399 169.68433 33749 ft 480 kts 229°
2026-05-07 12:51 53.75989 169.59912 33750 ft 482 kts 230°
2026-05-07 12:51 53.71560 169.51381 33756 ft 482 kts 230°
2026-05-07 12:52 53.67165 169.42941 33750 ft 482 kts 230°
2026-05-07 12:52 53.62884 169.34262 33750 ft 480 kts 236°
2026-05-07 12:53 53.59492 169.24604 33763 ft 478 kts 243°
2026-05-07 12:53 53.56380 169.14698 33747 ft 477 kts 243°
2026-05-07 12:54 53.53776 169.06533 33761 ft 477 kts 243°
2026-05-07 12:54 53.50111 168.95161 33748 ft 475 kts 242°
2026-05-07 12:55 53.47486 168.87055 33752 ft 474 kts 242°
2026-05-07 12:55 53.44329 168.77341 33750 ft 473 kts 242°
2026-05-07 12:56 53.41176 168.67673 33750 ft 472 kts 242°
2026-05-07 12:56 53.38017 168.58022 33764 ft 472 kts 242°
2026-05-07 12:57 53.34854 168.48400 33748 ft 471 kts 242°
2026-05-07 12:57 53.31689 168.38800 33748 ft 471 kts 242°
2026-05-07 12:58 53.28531 168.29280 33750 ft 471 kts 242°
2026-05-07 12:58 53.25340 168.19732 33745 ft 471 kts 242°
2026-05-07 12:59 53.22141 168.10194 33751 ft 470 kts 242°
2026-05-07 12:59 53.18943 168.00687 33743 ft 470 kts 242°
2026-05-07 13:00 53.15742 167.91202 33746 ft 469 kts 242°
2026-05-07 13:00 53.12537 167.81746 33740 ft 468 kts 242°
2026-05-07 13:01 53.09332 167.72324 33746 ft 467 kts 242°
2026-05-07 13:01 53.06128 167.62941 33745 ft 466 kts 242°
2026-05-07 13:02 53.02944 167.53651 33742 ft 464 kts 242°
2026-05-07 13:02 52.99743 167.44348 33741 ft 463 kts 242°
2026-05-07 13:03 52.96534 167.35054 33745 ft 463 kts 242°
2026-05-07 13:03 52.93324 167.25794 33743 ft 462 kts 242°
2026-05-07 13:04 52.90132 167.16617 33742 ft 462 kts 242°
2026-05-07 13:04 52.86912 167.07398 33740 ft 462 kts 242°
2026-05-07 13:05 52.83691 166.98207 33737 ft 462 kts 242°
2026-05-07 13:05 52.80463 166.89030 33742 ft 462 kts 242°
2026-05-07 13:06 52.77226 166.79862 33736 ft 462 kts 242°
2026-05-07 13:06 52.73983 166.70714 33732 ft 460 kts 242°
2026-05-07 13:07 52.70772 166.61686 33728 ft 458 kts 242°
2026-05-07 13:07 52.67545 166.52646 33734 ft 456 kts 242°
2026-05-07 13:08 52.64324 166.43653 33741 ft 455 kts 242°
2026-05-07 13:08 52.61108 166.34706 33747 ft 453 kts 242°
2026-05-07 13:09 52.57893 166.25795 33737 ft 452 kts 242°
2026-05-07 13:09 52.54676 166.16911 33744 ft 452 kts 242°
2026-05-07 13:10 52.51479 166.08112 33745 ft 452 kts 242°
2026-05-07 13:10 52.48241 165.99230 33745 ft 453 kts 242°
2026-05-07 13:11 52.44996 165.90364 33745 ft 452 kts 242°
2026-05-07 13:11 52.41748 165.81520 33738 ft 452 kts 242°
2026-05-07 13:12 52.38522 165.72764 33720 ft 452 kts 242°
2026-05-07 13:12 52.35274 165.63985 33735 ft 450 kts 242°
2026-05-07 13:13 52.32033 165.55248 33746 ft 449 kts 242°
2026-05-07 13:13 52.28793 165.46543 33744 ft 448 kts 242°
2026-05-07 13:14 52.25551 165.37866 33743 ft 447 kts 242°
2026-05-07 13:14 52.22306 165.29211 33765 ft 447 kts 242°
2026-05-07 13:15 52.19054 165.20566 33754 ft 447 kts 242°
2026-05-07 13:15 52.15802 165.11949 33749 ft 447 kts 242°
2026-05-07 13:16 52.12559 165.03386 33760 ft 446 kts 242°
2026-05-07 13:16 52.09291 164.94786 33755 ft 446 kts 242°
2026-05-07 13:17 52.06024 164.86218 33761 ft 446 kts 242°
2026-05-07 13:17 52.02765 164.77698 33761 ft 445 kts 242°
2026-05-07 13:18 51.99491 164.69178 33756 ft 444 kts 242°
2026-05-07 13:18 51.96226 164.60694 33755 ft 442 kts 242°
2026-05-07 13:19 51.92965 164.52252 33766 ft 441 kts 242°
2026-05-07 13:19 51.89701 164.43833 33766 ft 440 kts 242°
2026-05-07 13:20 51.86458 164.35495 33766 ft 440 kts 242°
2026-05-07 13:20 51.83194 164.27131 33769 ft 440 kts 242°
2026-05-07 13:21 51.79929 164.18791 33767 ft 438 kts 242°
2026-05-07 13:21 51.76666 164.10484 33771 ft 437 kts 242°
2026-05-07 13:22 51.73407 164.02212 33774 ft 437 kts 242°
2026-05-07 13:22 51.70140 163.93945 33776 ft 436 kts 242°
2026-05-07 13:23 51.66890 163.85749 33774 ft 436 kts 242°
2026-05-07 13:23 51.63602 163.77477 33729 ft 436 kts 242°
2026-05-07 13:24 51.60356 163.69351 33771 ft 434 kts 242°
2026-05-07 13:24 51.57095 163.61202 33796 ft 433 kts 242°
2026-05-07 13:25 51.53829 163.53079 33777 ft 432 kts 242°
2026-05-07 13:25 51.50562 163.44974 33774 ft 432 kts 242°
2026-05-07 13:26 51.47292 163.36884 33774 ft 432 kts 242°
2026-05-07 13:26 51.44018 163.28807 33779 ft 432 kts 242°
2026-05-07 13:27 51.40738 163.20741 33798 ft 432 kts 242°
2026-05-07 13:27 51.37455 163.12692 33781 ft 432 kts 242°
2026-05-07 13:28 51.34179 163.04686 33777 ft 432 kts 242°
2026-05-07 13:28 51.30879 162.96649 33777 ft 431 kts 242°
2026-05-07 13:29 51.27590 162.88662 33793 ft 430 kts 242°
2026-05-07 13:29 51.24311 162.80726 33768 ft 427 kts 242°
2026-05-07 13:30 51.21045 162.72846 33784 ft 423 kts 242°
2026-05-07 13:30 51.17800 162.65034 33796 ft 421 kts 242°
2026-05-07 13:31 51.14566 162.57272 33798 ft 419 kts 242°
2026-05-07 13:31 51.11344 162.49564 33799 ft 417 kts 242°
2026-05-07 13:32 51.08122 162.41878 33798 ft 417 kts 242°
2026-05-07 13:32 51.04920 162.34261 33797 ft 417 kts 242°
2026-05-07 13:33 51.01685 162.26588 33804 ft 418 kts 242°
2026-05-07 13:33 50.98450 162.18938 33805 ft 418 kts 242°
2026-05-07 13:34 50.93577 162.07461 33805 ft 418 kts 242°
2026-05-07 13:35 50.90327 161.99834 33803 ft 418 kts 242°
2026-05-07 13:35 50.87069 161.92210 33760 ft 417 kts 242°
2026-05-07 13:36 50.83865 161.84749 33796 ft 407 kts 242°
2026-05-07 13:36 50.80703 161.77393 33805 ft 403 kts 242°
2026-05-07 13:37 50.77546 161.70057 33810 ft 404 kts 242°
2026-05-07 13:37 50.74375 161.62715 33810 ft 405 kts 242°
2026-05-07 13:38 50.71195 161.55377 33818 ft 406 kts 242°
2026-05-07 13:38 50.68001 161.48027 33815 ft 406 kts 242°
2026-05-07 13:39 50.64797 161.40676 33821 ft 407 kts 242°
2026-05-07 13:39 50.61600 161.33363 33818 ft 407 kts 242°
2026-05-07 13:40 50.58380 161.26016 33820 ft 407 kts 242°
2026-05-07 13:40 50.55163 161.18698 33823 ft 407 kts 242°
2026-05-07 13:41 50.51937 161.11379 33815 ft 407 kts 242°
2026-05-07 13:41 50.48716 161.04094 33823 ft 405 kts 242°
2026-05-07 13:42 50.45545 160.96947 33811 ft 397 kts 242°
2026-05-07 13:42 50.42387 160.89840 33826 ft 395 kts 242°
2026-05-07 13:43 50.39247 160.82785 33831 ft 395 kts 242°
2026-05-07 13:43 50.36099 160.75738 33830 ft 395 kts 242°
2026-05-07 13:44 50.32940 160.68682 33825 ft 395 kts 242°
2026-05-07 13:44 50.29801 160.61695 33825 ft 395 kts 242°
2026-05-07 13:45 50.26637 160.54669 33832 ft 395 kts 242°
2026-05-07 13:45 50.23466 160.47643 33833 ft 395 kts 242°
2026-05-07 13:46 50.20293 160.40633 33832 ft 396 kts 242°
2026-05-07 13:46 50.17643 160.34811 33821 ft 395 kts 241°
2026-05-07 13:47 50.14442 160.27829 33832 ft 395 kts 241°
2026-05-07 13:47 50.11240 160.20861 33833 ft 395 kts 241°
2026-05-07 13:48 50.08041 160.13914 33828 ft 393 kts 241°
2026-05-07 13:48 50.04855 160.07008 33838 ft 392 kts 241°
2026-05-07 13:49 50.01692 160.00169 33805 ft 392 kts 241°
2026-05-07 13:49 49.98508 159.93303 33826 ft 391 kts 241°
2026-05-07 13:50 49.95326 159.86459 33837 ft 391 kts 241°
2026-05-07 13:50 49.92136 159.79613 33841 ft 391 kts 241°
2026-05-07 13:51 49.88942 159.72779 33845 ft 391 kts 241°
2026-05-07 13:51 49.85741 159.65948 33841 ft 392 kts 241°
2026-05-07 13:52 49.82555 159.59163 33839 ft 392 kts 240°
2026-05-07 13:52 49.79344 159.52345 33838 ft 392 kts 240°
2026-05-07 13:53 49.76126 159.45529 33841 ft 392 kts 240°
2026-05-07 13:53 49.72901 159.38711 33841 ft 392 kts 240°
2026-05-07 13:54 49.69658 159.31912 33841 ft 393 kts 240°
2026-05-07 13:54 49.66383 159.25224 33833 ft 393 kts 239°
2026-05-07 13:55 49.63080 159.18519 33842 ft 393 kts 239°
2026-05-07 13:55 49.59771 159.11803 33843 ft 393 kts 239°
2026-05-07 13:56 49.56465 159.05100 33839 ft 393 kts 239°
2026-05-07 13:56 49.53158 158.98407 33842 ft 393 kts 239°
2026-05-07 13:57 49.49844 158.91717 33832 ft 392 kts 239°
2026-05-07 13:57 49.46537 158.85057 33842 ft 392 kts 239°
2026-05-07 13:58 49.43245 158.78444 33840 ft 392 kts 239°
2026-05-07 13:58 49.39928 158.71797 33838 ft 392 kts 239°
2026-05-07 13:59 49.36611 158.65166 33839 ft 392 kts 239°
2026-05-07 13:59 49.33282 158.58530 33812 ft 392 kts 239°
2026-05-07 14:00 49.29966 158.51937 33834 ft 390 kts 239°
2026-05-07 14:00 49.26651 158.45359 33834 ft 389 kts 239°
2026-05-07 14:01 49.23363 158.38854 33837 ft 388 kts 239°
2026-05-07 14:01 49.20035 158.32283 33836 ft 388 kts 239°
2026-05-07 14:02 49.16753 158.25817 33812 ft 388 kts 239°
2026-05-07 14:02 49.13436 158.19302 33821 ft 387 kts 239°
2026-05-07 14:03 49.10125 158.12811 33830 ft 387 kts 239°
2026-05-07 14:03 49.06808 158.06325 33831 ft 387 kts 239°
2026-05-07 14:04 49.03485 157.99844 33835 ft 388 kts 239°
2026-05-07 14:04 49.00182 157.93416 33830 ft 388 kts 239°
2026-05-07 14:05 48.96846 157.86943 33824 ft 388 kts 239°
2026-05-07 14:05 48.93513 157.80489 33769 ft 388 kts 239°
2026-05-07 14:06 48.90177 157.74046 33814 ft 387 kts 239°
2026-05-07 14:06 48.86845 157.67626 33818 ft 387 kts 239°
2026-05-07 14:07 48.83509 157.61211 33838 ft 387 kts 239°
2026-05-07 14:07 48.80168 157.54807 33821 ft 387 kts 239°
2026-05-07 14:08 48.76826 157.48412 33827 ft 387 kts 239°
2026-05-07 14:08 48.73503 157.42070 33824 ft 387 kts 239°
2026-05-07 14:09 48.70144 157.35673 33826 ft 387 kts 239°
2026-05-07 14:09 48.66787 157.29297 33823 ft 387 kts 239°
2026-05-07 14:10 48.63430 157.22935 33809 ft 387 kts 239°
2026-05-07 14:10 48.60063 157.16570 33819 ft 387 kts 239°
2026-05-07 14:11 48.56695 157.10218 33825 ft 387 kts 239°
2026-05-07 14:11 48.53347 157.03918 33803 ft 387 kts 239°
2026-05-07 14:12 48.49971 156.97582 33811 ft 387 kts 239°
2026-05-07 14:12 48.46591 156.91251 33812 ft 388 kts 239°
2026-05-07 14:13 48.43203 156.84920 33818 ft 388 kts 239°
2026-05-07 14:13 48.39803 156.78582 33817 ft 389 kts 239°
2026-05-07 14:14 48.36401 156.72257 33820 ft 389 kts 239°
2026-05-07 14:14 48.33006 156.65959 33814 ft 389 kts 239°
2026-05-07 14:15 48.29592 156.59642 33803 ft 389 kts 239°
2026-05-07 14:15 48.26179 156.53339 33807 ft 389 kts 239°
2026-05-07 14:16 48.22770 156.47057 33953 ft 391 kts 239°
2026-05-07 14:16 48.21047 156.43889 34208 ft 391 kts 239°
2026-05-07 14:16 48.19330 156.40736 34452 ft 390 kts 239°
2026-05-07 14:16 48.17616 156.37594 34689 ft 390 kts 239°
2026-05-07 14:17 48.15902 156.34452 34849 ft 391 kts 239°
2026-05-07 14:17 48.14168 156.31277 35016 ft 392 kts 239°
2026-05-07 14:17 48.12440 156.28118 35235 ft 392 kts 239°
2026-05-07 14:17 48.10712 156.24963 35455 ft 392 kts 239°
2026-05-07 14:18 48.08983 156.21808 35650 ft 392 kts 239°
2026-05-07 14:18 48.05505 156.15474 35774 ft 395 kts 239°
2026-05-07 14:19 48.02017 156.09140 35814 ft 394 kts 239°
2026-05-07 14:19 47.98560 156.02881 35817 ft 392 kts 239°
2026-05-07 14:20 47.95091 155.96611 35805 ft 391 kts 239°
2026-05-07 14:20 47.91633 155.90373 35812 ft 390 kts 239°
2026-05-07 14:21 47.88238 155.84262 35809 ft 390 kts 239°
2026-05-07 14:21 47.84774 155.78042 35818 ft 390 kts 239°
2026-05-07 14:22 47.81302 155.71820 35820 ft 391 kts 239°
2026-05-07 14:22 47.77817 155.65591 35744 ft 391 kts 239°
2026-05-07 14:23 47.74336 155.59386 35817 ft 391 kts 239°
2026-05-07 14:23 47.70871 155.53219 35821 ft 392 kts 239°
2026-05-07 14:24 47.67367 155.46998 35819 ft 393 kts 239°
2026-05-07 14:24 47.63846 155.40762 35818 ft 394 kts 239°
2026-05-07 14:25 47.60319 155.34532 35812 ft 394 kts 239°
2026-05-07 14:25 47.56791 155.28314 35819 ft 394 kts 239°
2026-05-07 14:26 47.53262 155.22109 35816 ft 394 kts 239°
2026-05-07 14:26 47.49734 155.15919 35819 ft 393 kts 239°
2026-05-07 14:27 47.46206 155.09744 35820 ft 393 kts 239°
2026-05-07 14:27 47.42677 155.03581 35811 ft 392 kts 238°
2026-05-07 14:28 47.39152 154.97437 35790 ft 391 kts 238°
2026-05-07 14:28 47.35631 154.91316 35813 ft 391 kts 238°
2026-05-07 14:29 47.32114 154.85212 35826 ft 390 kts 238°
2026-05-07 14:29 47.28592 154.79115 35825 ft 391 kts 238°
2026-05-07 14:30 47.25085 154.73059 35827 ft 391 kts 238°
2026-05-07 14:30 47.21555 154.66975 35828 ft 391 kts 238°
2026-05-07 14:31 47.18013 154.60885 35829 ft 391 kts 238°
2026-05-07 14:31 47.14465 154.54799 35827 ft 392 kts 238°
2026-05-07 14:32 47.10912 154.48718 35811 ft 392 kts 238°
2026-05-07 14:32 47.07363 154.42658 35824 ft 391 kts 238°
2026-05-07 14:33 47.03815 154.36612 35832 ft 391 kts 238°
2026-05-07 14:33 47.00282 154.30605 35794 ft 390 kts 238°
2026-05-07 14:34 46.96741 154.24600 35825 ft 389 kts 238°
2026-05-07 14:34 46.93798 154.19616 35814 ft 389 kts 238°
2026-05-07 14:35 46.90258 154.13634 35840 ft 389 kts 238°
2026-05-07 14:35 46.86712 154.07656 35835 ft 389 kts 238°
2026-05-07 14:36 46.83166 154.01689 35836 ft 388 kts 238°
2026-05-07 14:36 46.79644 153.95779 35835 ft 388 kts 238°
2026-05-07 14:37 46.76074 153.89799 35825 ft 388 kts 238°
2026-05-07 14:37 46.70774 153.80946 35841 ft 387 kts 238°
2026-05-07 14:38 46.67227 153.75037 35840 ft 387 kts 238°
2026-05-07 14:38 46.63698 153.69172 35841 ft 387 kts 238°
2026-05-07 14:39 46.60162 153.63307 35830 ft 386 kts 238°
2026-05-07 14:39 46.56617 153.57438 35834 ft 386 kts 238°
2026-05-07 14:40 46.53073 153.51585 35842 ft 386 kts 238°
2026-05-07 14:40 46.49525 153.45738 35842 ft 386 kts 238°
2026-05-07 14:41 46.45973 153.39896 35841 ft 386 kts 238°
2026-05-07 14:41 46.42412 153.34052 35822 ft 386 kts 238°
2026-05-07 14:42 46.38855 153.28228 35841 ft 386 kts 238°
2026-05-07 14:42 46.35320 153.22452 35847 ft 386 kts 238°
2026-05-07 14:43 46.31760 153.16645 35846 ft 386 kts 238°
2026-05-07 14:43 46.28192 153.10838 35844 ft 386 kts 238°
2026-05-07 14:44 46.24626 153.05045 35813 ft 386 kts 238°
2026-05-07 14:44 46.21057 152.99266 35838 ft 386 kts 238°
2026-05-07 14:45 46.17454 152.93505 35847 ft 387 kts 237°
2026-05-07 14:45 46.13858 152.87785 35849 ft 387 kts 237°
2026-05-07 14:46 46.10236 152.82028 35850 ft 388 kts 237°
2026-05-07 14:46 46.06608 152.76272 35837 ft 388 kts 237°
2026-05-07 14:47 46.02974 152.70516 35849 ft 388 kts 237°
2026-05-07 14:47 45.99337 152.64766 35855 ft 388 kts 237°
2026-05-07 14:48 45.95721 152.59060 35855 ft 388 kts 237°
2026-05-07 14:48 45.92082 152.53331 35858 ft 388 kts 237°
2026-05-07 14:49 45.88439 152.47607 35852 ft 388 kts 237°
2026-05-07 14:49 45.84804 152.41908 35860 ft 387 kts 237°
2026-05-07 14:50 45.81159 152.36205 35858 ft 387 kts 237°
2026-05-07 14:50 45.77515 152.30516 35857 ft 387 kts 237°
2026-05-07 14:51 45.73865 152.24828 35844 ft 387 kts 237°
2026-05-07 14:51 45.70216 152.19155 35858 ft 387 kts 237°
2026-05-07 14:52 45.66589 152.13527 35858 ft 387 kts 236°
2026-05-07 14:52 45.62933 152.07866 35860 ft 388 kts 236°
2026-05-07 14:53 45.59269 152.02203 35858 ft 388 kts 236°
2026-05-07 14:53 45.55600 151.96545 35857 ft 388 kts 236°
2026-05-07 14:54 45.51931 151.90900 35857 ft 388 kts 236°
2026-05-07 14:54 45.48254 151.85253 35851 ft 388 kts 236°
2026-05-07 14:55 45.44599 151.79650 35858 ft 389 kts 236°
2026-05-07 14:55 45.40903 151.73996 35846 ft 390 kts 236°
2026-05-07 14:56 45.37196 151.68338 35871 ft 391 kts 236°
2026-05-07 14:56 45.33482 151.62682 35855 ft 392 kts 236°
2026-05-07 14:57 45.29760 151.57024 35851 ft 392 kts 236°
2026-05-07 14:57 45.26031 151.51369 35853 ft 392 kts 236°
2026-05-07 14:58 45.22320 151.45751 35859 ft 392 kts 236°
2026-05-07 14:58 45.18587 151.40113 35856 ft 392 kts 236°
2026-05-07 14:59 45.14852 151.34483 35856 ft 392 kts 236°
2026-05-07 14:59 45.11118 151.28865 35841 ft 391 kts 236°
2026-05-07 15:00 45.07380 151.23250 35847 ft 391 kts 235°
2026-05-07 15:00 45.03639 151.17645 35864 ft 392 kts 235°
2026-05-07 15:01 44.99891 151.12042 35862 ft 392 kts 235°
2026-05-07 15:01 44.96135 151.06438 35857 ft 393 kts 235°
2026-05-07 15:02 44.92371 151.00833 35862 ft 393 kts 235°
2026-05-07 15:02 44.88627 150.95268 35852 ft 394 kts 234°
2026-05-07 15:03 44.84849 150.89666 35862 ft 394 kts 234°
2026-05-07 15:03 44.81067 150.84067 35860 ft 394 kts 234°
2026-05-07 15:04 44.77278 150.78472 35864 ft 394 kts 234°
2026-05-07 15:04 44.73490 150.72888 35867 ft 394 kts 234°
2026-05-07 15:05 44.69693 150.67302 35864 ft 395 kts 234°
2026-05-07 15:05 44.65915 150.61754 35864 ft 395 kts 234°
2026-05-07 15:06 44.62106 150.56174 35864 ft 395 kts 234°
2026-05-07 15:06 44.58295 150.50602 35866 ft 395 kts 234°
2026-05-07 15:07 44.54484 150.45041 35865 ft 395 kts 234°
2026-05-07 15:07 44.50693 150.39521 35866 ft 395 kts 234°
2026-05-07 15:08 44.46877 150.33975 35866 ft 395 kts 234°
2026-05-07 15:08 44.43081 150.28468 35865 ft 395 kts 233°
2026-05-07 15:09 44.39257 150.22932 35854 ft 395 kts 233°
2026-05-07 15:09 44.35435 150.17410 35856 ft 395 kts 233°
2026-05-07 15:10 44.31615 150.11903 35870 ft 395 kts 233°
2026-05-07 15:10 44.27778 150.06381 35869 ft 396 kts 233°
2026-05-07 15:11 44.23934 150.00860 35869 ft 397 kts 233°
2026-05-07 15:11 44.20082 149.95340 35869 ft 397 kts 233°
2026-05-07 15:12 44.16251 149.89860 35866 ft 398 kts 233°
2026-05-07 15:12 44.12388 149.84346 35866 ft 398 kts 233°
2026-05-07 15:13 44.08517 149.78831 35865 ft 398 kts 232°
2026-05-07 15:13 44.04639 149.73318 35865 ft 398 kts 232°
2026-05-07 15:14 44.00769 149.67827 35861 ft 397 kts 232°
2026-05-07 15:14 43.96898 149.62345 35862 ft 398 kts 232°
2026-05-07 15:15 43.93047 149.56901 35865 ft 398 kts 232°
2026-05-07 15:15 43.89158 149.51415 35867 ft 398 kts 232°
2026-05-07 15:16 43.85267 149.45937 35867 ft 398 kts 232°
2026-05-07 15:16 43.81375 149.40469 35867 ft 399 kts 232°
2026-05-07 15:17 43.77478 149.35005 35865 ft 399 kts 232°
2026-05-07 15:17 43.73574 149.29540 35856 ft 399 kts 232°
2026-05-07 15:18 43.69671 149.24090 35869 ft 399 kts 232°
2026-05-07 15:18 43.65784 149.18672 35828 ft 399 kts 232°
2026-05-07 15:19 43.61874 149.13231 35851 ft 399 kts 231°
2026-05-07 15:19 43.57951 149.07783 35867 ft 401 kts 231°
2026-05-07 15:20 43.54014 149.02326 35867 ft 402 kts 231°
2026-05-07 15:20 43.50066 148.96865 35870 ft 403 kts 231°
2026-05-07 15:21 43.46106 148.91399 35864 ft 403 kts 231°
2026-05-07 15:21 43.42155 148.85957 35870 ft 404 kts 231°
2026-05-07 15:22 43.38178 148.80488 35869 ft 404 kts 231°
2026-05-07 15:22 43.34204 148.75036 35861 ft 403 kts 231°
2026-05-07 15:23 43.30227 148.69590 35865 ft 403 kts 231°
2026-05-07 15:23 43.26930 148.65082 35865 ft 403 kts 231°
2026-05-07 15:24 43.22308 148.58774 35861 ft 403 kts 231°
2026-05-07 15:24 43.18967 148.54225 35868 ft 404 kts 230°
2026-05-07 15:25 43.14997 148.48827 35873 ft 404 kts 230°
2026-05-07 15:25 43.11000 148.43404 35867 ft 405 kts 230°
2026-05-07 15:26 43.06987 148.37970 35865 ft 405 kts 230°
2026-05-07 15:26 43.02973 148.32545 35871 ft 405 kts 230°
2026-05-07 15:27 42.98985 148.27167 35868 ft 406 kts 230°
2026-05-07 15:27 42.94962 148.21751 35866 ft 406 kts 230°
2026-05-07 15:28 42.90937 148.16342 35871 ft 406 kts 230°
2026-05-07 15:28 42.86907 148.10938 35877 ft 406 kts 230°
2026-05-07 15:29 42.82877 148.05543 35869 ft 407 kts 230°
2026-05-07 15:29 42.78836 148.00145 35870 ft 407 kts 230°
2026-05-07 15:30 42.74788 147.94747 35863 ft 407 kts 230°
2026-05-07 15:30 42.70742 147.89363 35868 ft 407 kts 230°
2026-05-07 15:31 42.66686 147.83976 35863 ft 407 kts 230°
2026-05-07 15:31 42.62628 147.78596 35862 ft 407 kts 230°
2026-05-07 15:32 42.58599 147.73266 35849 ft 407 kts 229°
2026-05-07 15:32 42.54545 147.67911 35859 ft 407 kts 229°
2026-05-07 15:33 42.50481 147.62553 35867 ft 408 kts 229°
2026-05-07 15:33 42.46404 147.57189 35864 ft 409 kts 229°
2026-05-07 15:34 42.42311 147.51811 35860 ft 410 kts 229°
2026-05-07 15:34 42.38211 147.46439 35859 ft 411 kts 229°
2026-05-07 15:35 42.34103 147.41056 35858 ft 411 kts 229°
2026-05-07 15:35 42.29995 147.35680 35860 ft 411 kts 229°
2026-05-07 15:36 42.25880 147.30303 35857 ft 411 kts 229°
2026-05-07 15:36 42.21796 147.24977 35854 ft 411 kts 229°
2026-05-07 15:37 42.17680 147.19620 35855 ft 411 kts 229°
2026-05-07 15:37 42.13565 147.14274 35857 ft 410 kts 228°
2026-05-07 15:38 42.09456 147.08945 35857 ft 410 kts 228°
2026-05-07 15:38 42.05343 147.03622 35857 ft 410 kts 228°
2026-05-07 15:39 42.01262 146.98349 35857 ft 409 kts 228°
2026-05-07 15:39 41.97154 146.93050 35854 ft 409 kts 228°
2026-05-07 15:40 41.93039 146.87753 35854 ft 409 kts 228°
2026-05-07 15:40 41.88922 146.82464 35843 ft 409 kts 228°
2026-05-07 15:41 41.84810 146.77185 35847 ft 409 kts 227°
2026-05-07 15:41 41.80712 146.71933 35847 ft 410 kts 227°
2026-05-07 15:42 41.76583 146.66648 35857 ft 411 kts 227°
2026-05-07 15:42 41.72441 146.61358 35859 ft 412 kts 227°
2026-05-07 15:43 41.68285 146.56059 35856 ft 412 kts 227°
2026-05-07 15:43 41.64120 146.50759 35848 ft 413 kts 227°
2026-05-07 15:44 41.59949 146.45461 35859 ft 413 kts 227°
2026-05-07 15:44 41.55801 146.40203 35857 ft 413 kts 227°
2026-05-07 15:45 41.51629 146.34924 35847 ft 413 kts 227°
2026-05-07 15:45 41.47454 146.29650 35847 ft 413 kts 227°
2026-05-07 15:46 41.41188 146.21755 35857 ft 413 kts 227°
2026-05-07 15:47 41.37005 146.16497 35854 ft 413 kts 227°
2026-05-07 15:47 41.32815 146.11238 35847 ft 413 kts 227°
2026-05-07 15:48 41.28623 146.05988 35856 ft 413 kts 226°
2026-05-07 15:48 41.24423 146.00737 35852 ft 414 kts 226°
2026-05-07 15:49 41.20253 145.95533 35853 ft 414 kts 226°
2026-05-07 15:49 41.16061 145.90311 35848 ft 413 kts 226°
2026-05-07 15:50 41.11861 145.85090 35857 ft 413 kts 226°
2026-05-07 15:50 41.07670 145.79890 35854 ft 412 kts 226°
2026-05-07 15:51 41.03480 145.74699 35859 ft 412 kts 226°
2026-05-07 15:51 40.99283 145.69509 35861 ft 412 kts 226°
2026-05-07 15:52 40.95091 145.64335 35853 ft 413 kts 226°
2026-05-07 15:52 40.90891 145.59160 35847 ft 413 kts 226°
2026-05-07 15:53 40.86705 145.54012 35842 ft 413 kts 226°
2026-05-07 15:53 40.82502 145.48853 35843 ft 412 kts 226°
2026-05-07 15:54 40.78286 145.43688 35856 ft 412 kts 226°
2026-05-07 15:54 40.74078 145.38541 35861 ft 413 kts 226°
2026-05-07 15:55 40.69862 145.33393 35857 ft 413 kts 226°
2026-05-07 15:55 40.65670 145.28284 35857 ft 413 kts 226°
2026-05-07 15:56 40.61452 145.23152 35857 ft 413 kts 226°
2026-05-07 15:56 40.57231 145.18026 35845 ft 413 kts 225°
2026-05-07 15:57 40.53008 145.12906 35858 ft 413 kts 225°
2026-05-07 15:57 40.48783 145.07790 35847 ft 413 kts 225°
2026-05-07 15:58 40.44574 145.02657 35855 ft 412 kts 228°
2026-05-07 15:58 40.40891 144.96915 35853 ft 410 kts 234°
2026-05-07 15:59 40.37799 144.90675 35859 ft 411 kts 239°
2026-05-07 15:59 40.34829 144.84259 35858 ft 411 kts 239°
2026-05-07 16:00 40.31848 144.77840 35855 ft 412 kts 238°
2026-05-07 16:00 40.28869 144.71456 35856 ft 413 kts 238°
2026-05-07 16:01 40.25859 144.65031 35857 ft 414 kts 238°
2026-05-07 16:01 40.22846 144.58615 35853 ft 414 kts 238°
2026-05-07 16:02 40.19819 144.52183 35850 ft 415 kts 238°
2026-05-07 16:02 40.16788 144.45756 35851 ft 415 kts 238°
2026-05-07 16:03 40.13748 144.39323 35853 ft 416 kts 238°
2026-05-07 16:03 40.10723 144.32934 35858 ft 416 kts 238°
2026-05-07 16:04 40.07676 144.26513 35855 ft 416 kts 238°
2026-05-07 16:04 40.04621 144.20089 35844 ft 416 kts 238°
2026-05-07 16:05 40.01565 144.13675 35856 ft 416 kts 238°
2026-05-07 16:05 39.98505 144.07265 35858 ft 416 kts 238°
2026-05-07 16:06 39.95441 144.00860 35854 ft 416 kts 238°
2026-05-07 16:06 39.92372 143.94459 35850 ft 416 kts 238°
2026-05-07 16:07 39.89296 143.88055 35857 ft 417 kts 238°
2026-05-07 16:07 39.86218 143.81661 35863 ft 417 kts 238°
2026-05-07 16:08 39.83157 143.75315 35846 ft 417 kts 238°
2026-05-07 16:08 39.80071 143.68929 35851 ft 417 kts 237°
2026-05-07 16:09 39.76975 143.62537 35855 ft 417 kts 237°
2026-05-07 16:09 39.73873 143.56144 35843 ft 418 kts 237°
2026-05-07 16:10 39.70768 143.49759 35851 ft 418 kts 237°
2026-05-07 16:10 39.67656 143.43372 35850 ft 419 kts 237°
2026-05-07 16:11 39.64551 143.37013 35848 ft 419 kts 237°
2026-05-07 16:11 39.61422 143.30617 35847 ft 420 kts 237°
2026-05-07 16:12 39.58290 143.24228 35844 ft 420 kts 237°
2026-05-07 16:12 39.55661 143.18875 35843 ft 420 kts 237°
2026-05-07 16:13 39.52538 143.12526 35844 ft 420 kts 237°
2026-05-07 16:13 39.49397 143.06155 35841 ft 420 kts 237°
2026-05-07 16:14 39.46249 142.99783 35841 ft 420 kts 237°
2026-05-07 16:14 39.43092 142.93405 35841 ft 420 kts 237°
2026-05-07 16:15 39.39956 142.87082 35844 ft 420 kts 237°
2026-05-07 16:15 39.36800 142.80731 35844 ft 420 kts 237°
2026-05-07 16:16 39.33640 142.74384 35845 ft 420 kts 237°
2026-05-07 16:16 39.30471 142.68032 35842 ft 420 kts 237°
2026-05-07 16:17 39.27298 142.61682 35844 ft 420 kts 237°
2026-05-07 16:17 39.24121 142.55342 35841 ft 421 kts 236°
2026-05-07 16:18 39.20543 142.49372 35839 ft 421 kts 230°
2026-05-07 16:18 39.16715 142.43650 35834 ft 422 kts 230°
2026-05-07 16:19 39.12922 142.37941 35829 ft 422 kts 230°
2026-05-07 16:19 39.09106 142.32197 35839 ft 422 kts 230°
2026-05-07 16:20 39.05283 142.26449 35839 ft 423 kts 230°
2026-05-07 16:20 39.01450 142.20698 35841 ft 424 kts 230°
2026-05-07 16:21 38.97603 142.14936 35840 ft 424 kts 230°
2026-05-07 16:21 38.93770 142.09208 35841 ft 425 kts 230°
2026-05-07 16:22 38.89910 142.03448 35837 ft 425 kts 230°
2026-05-07 16:22 38.86046 141.97693 35842 ft 425 kts 230°
2026-05-07 16:23 38.82184 141.91951 35842 ft 425 kts 230°
2026-05-07 16:23 38.78314 141.86209 35842 ft 425 kts 230°
2026-05-07 16:24 38.74472 141.80517 35842 ft 425 kts 230°
2026-05-07 16:24 38.70596 141.74786 35832 ft 425 kts 230°
2026-05-07 16:25 38.66720 141.69065 35835 ft 425 kts 230°
2026-05-07 16:25 38.62843 141.63353 35848 ft 425 kts 230°
2026-05-07 16:26 38.58956 141.57635 35847 ft 426 kts 230°
2026-05-07 16:26 38.55064 141.51923 35850 ft 426 kts 230°
2026-05-07 16:27 38.51185 141.46235 35848 ft 427 kts 230°
2026-05-07 16:27 38.47275 141.40516 35851 ft 427 kts 229°
2026-05-07 16:28 38.43357 141.34797 35845 ft 428 kts 229°
2026-05-07 16:28 38.39433 141.29078 35849 ft 428 kts 229°
2026-05-07 16:29 38.35507 141.23365 35849 ft 428 kts 229°
2026-05-07 16:29 38.31578 141.17658 35849 ft 428 kts 229°
2026-05-07 16:30 38.27646 141.11957 35848 ft 428 kts 229°
2026-05-07 16:30 38.23714 141.06264 35843 ft 428 kts 229°
2026-05-07 16:31 38.19808 141.00619 35849 ft 428 kts 229°
2026-05-07 16:31 38.16070 140.94761 35845 ft 427 kts 239°
2026-05-07 16:32 38.13696 140.87835 35858 ft 430 kts 250°
2026-05-07 16:32 38.12684 140.80320 35868 ft 434 kts 260°
2026-05-07 16:33 38.12040 140.72676 35876 ft 435 kts 260°
2026-05-07 16:33 38.11330 140.65034 35859 ft 436 kts 259°
2026-05-07 16:34 38.10577 140.57388 35855 ft 436 kts 259°
2026-05-07 16:34 38.09769 140.49801 35875 ft 436 kts 259°
2026-05-07 16:35 38.08946 140.42154 35862 ft 438 kts 259°
2026-05-07 16:35 38.08126 140.34496 35857 ft 437 kts 259°
2026-05-07 16:36 38.07322 140.26866 35860 ft 435 kts 259°
2026-05-07 16:36 38.06624 140.19245 35870 ft 434 kts 260°
2026-05-07 16:37 38.05941 140.11636 35874 ft 433 kts 260°
2026-05-07 16:37 38.05242 140.04056 35879 ft 432 kts 260°
2026-05-07 16:38 38.04535 139.96497 35874 ft 431 kts 259°
2026-05-07 16:38 38.03824 139.88960 35873 ft 430 kts 259°
2026-05-07 16:39 38.03109 139.81432 35869 ft 430 kts 260°
2026-05-07 16:39 38.02380 139.73894 35872 ft 430 kts 259°
2026-05-07 16:40 38.01579 139.66440 35874 ft 430 kts 259°
2026-05-07 16:40 38.00755 139.58918 35867 ft 430 kts 259°
2026-05-07 16:41 37.99935 139.51387 35872 ft 431 kts 259°
2026-05-07 16:41 37.99116 139.43858 35871 ft 431 kts 259°
2026-05-07 16:42 37.98329 139.36313 35862 ft 431 kts 259°
2026-05-07 16:42 37.97577 139.28816 35865 ft 431 kts 259°
2026-05-07 16:43 37.96811 139.21295 35859 ft 431 kts 259°
2026-05-07 16:43 37.95895 139.13813 35859 ft 428 kts 254°
2026-05-07 16:44 37.94146 139.06618 35853 ft 426 kts 246°
2026-05-07 16:44 37.91771 138.99746 35861 ft 426 kts 245°
2026-05-07 16:45 37.89364 138.92879 35860 ft 427 kts 245°
2026-05-07 16:45 37.86963 138.85995 35861 ft 428 kts 245°
2026-05-07 16:46 37.84560 138.79093 35858 ft 428 kts 245°
2026-05-07 16:46 37.82154 138.72191 35864 ft 429 kts 245°
2026-05-07 16:47 37.79755 138.65326 35865 ft 430 kts 245°
2026-05-07 16:47 37.77321 138.58377 35869 ft 430 kts 245°
2026-05-07 16:48 37.74908 138.51505 35859 ft 430 kts 245°
2026-05-07 16:48 37.72479 138.44596 35864 ft 430 kts 245°
2026-05-07 16:49 37.70046 138.37702 35866 ft 430 kts 245°
2026-05-07 16:49 37.67605 138.30799 35866 ft 430 kts 245°
2026-05-07 16:50 37.65166 138.23910 35865 ft 430 kts 245°
2026-05-07 16:50 37.62724 138.17029 35877 ft 429 kts 245°
2026-05-07 16:51 37.60281 138.10159 35858 ft 429 kts 245°
2026-05-07 16:51 37.57834 138.03291 35863 ft 429 kts 245°
2026-05-07 16:52 37.55385 137.96437 35860 ft 428 kts 245°
2026-05-07 16:52 37.52953 137.89644 35860 ft 428 kts 245°
2026-05-07 16:53 37.50501 137.82812 35850 ft 428 kts 245°
2026-05-07 16:53 37.48039 137.75967 35859 ft 428 kts 245°
2026-05-07 16:54 37.45576 137.69134 35858 ft 429 kts 245°
2026-05-07 16:54 37.43106 137.62297 35852 ft 429 kts 245°
2026-05-07 16:55 37.40626 137.55448 35857 ft 430 kts 245°
2026-05-07 16:55 37.38156 137.48642 35853 ft 430 kts 245°
2026-05-07 16:56 37.35663 137.41789 35856 ft 431 kts 245°
2026-05-07 16:56 37.31914 137.31511 35863 ft 430 kts 245°
2026-05-07 16:57 37.29429 137.24715 35871 ft 430 kts 245°
2026-05-07 16:57 37.26928 137.17895 35876 ft 430 kts 245°
2026-05-07 16:58 37.24427 137.11086 35856 ft 429 kts 245°
2026-05-07 16:58 37.21925 137.04291 35853 ft 429 kts 245°
2026-05-07 16:59 37.19419 136.97499 35855 ft 428 kts 245°
2026-05-07 16:59 37.16913 136.90724 35856 ft 428 kts 245°
2026-05-07 17:00 37.14428 136.84017 35855 ft 427 kts 245°
2026-05-07 17:00 37.11922 136.77268 35861 ft 426 kts 245°
2026-05-07 17:01 37.09410 136.70519 35864 ft 426 kts 245°
2026-05-07 17:01 37.06895 136.63793 35848 ft 426 kts 245°
2026-05-07 17:02 37.04803 136.58207 35852 ft 426 kts 245°
2026-05-07 17:02 37.02297 136.51526 35854 ft 426 kts 245°
2026-05-07 17:03 36.99775 136.44816 35848 ft 426 kts 245°
2026-05-07 17:03 36.97253 136.38117 35854 ft 426 kts 245°
2026-05-07 17:04 36.94725 136.31419 35851 ft 426 kts 245°
2026-05-07 17:04 36.92189 136.24713 35845 ft 426 kts 245°
2026-05-07 17:05 36.89649 136.18012 35851 ft 427 kts 245°
2026-05-07 17:05 36.87102 136.11307 35849 ft 427 kts 245°
2026-05-07 17:06 36.84566 136.04643 35852 ft 428 kts 245°
2026-05-07 17:06 36.82005 135.97931 35853 ft 428 kts 245°
2026-05-07 17:07 36.79439 135.91219 35854 ft 429 kts 244°
2026-05-07 17:07 36.76865 135.84499 35853 ft 429 kts 244°
2026-05-07 17:08 36.74292 135.77800 35873 ft 429 kts 245°
2026-05-07 17:08 36.71718 135.71108 35852 ft 428 kts 245°
2026-05-07 17:09 36.69146 135.64436 35848 ft 426 kts 245°
2026-05-07 17:09 36.66579 135.57790 35852 ft 425 kts 245°
2026-05-07 17:10 36.64013 135.51164 35848 ft 424 kts 245°
2026-05-07 17:10 36.61453 135.44565 35850 ft 423 kts 245°
2026-05-07 17:11 36.58912 135.38029 35854 ft 422 kts 245°
2026-05-07 17:11 36.56350 135.31455 35851 ft 421 kts 245°
2026-05-07 17:12 36.53790 135.24896 35848 ft 421 kts 245°
2026-05-07 17:12 36.51228 135.18347 35848 ft 421 kts 244°
2026-05-07 17:13 36.48661 135.11798 35841 ft 422 kts 245°
2026-05-07 17:13 36.46106 135.05293 35849 ft 422 kts 244°
2026-05-07 17:14 36.43527 134.98740 35851 ft 423 kts 244°
2026-05-07 17:14 36.40936 134.92171 35847 ft 423 kts 244°
2026-05-07 17:15 36.38339 134.85601 35848 ft 424 kts 244°
2026-05-07 17:15 36.35740 134.79038 35847 ft 424 kts 244°
2026-05-07 17:16 36.33131 134.72463 35847 ft 424 kts 244°
2026-05-07 17:16 36.30521 134.65899 35847 ft 424 kts 244°
2026-05-07 17:17 36.27924 134.59377 35847 ft 424 kts 244°
2026-05-07 17:17 36.25308 134.52825 35846 ft 424 kts 244°
2026-05-07 17:18 36.22424 134.46440 35848 ft 424 kts 239°
2026-05-07 17:18 36.19323 134.40232 35849 ft 424 kts 239°
2026-05-07 17:19 36.16225 134.34007 35849 ft 424 kts 239°
2026-05-07 17:19 36.13138 134.27797 35842 ft 424 kts 239°
2026-05-07 17:20 36.10051 134.21594 35853 ft 423 kts 239°
2026-05-07 17:20 36.06979 134.15433 35855 ft 423 kts 239°
2026-05-07 17:21 36.03887 134.09244 35857 ft 423 kts 239°
2026-05-07 17:21 36.00787 134.03047 35854 ft 423 kts 239°
2026-05-07 17:22 35.97917 133.96728 35849 ft 422 kts 248°
2026-05-07 17:22 35.96271 133.89775 35863 ft 422 kts 257°
2026-05-07 17:23 35.95750 133.82584 35859 ft 425 kts 265°
2026-05-07 17:23 35.95572 133.75291 35858 ft 425 kts 265°
2026-05-07 17:24 35.95383 133.67998 35861 ft 425 kts 265°
2026-05-07 17:24 35.95165 133.60714 35853 ft 424 kts 264°
2026-05-07 17:25 35.94931 133.53439 35859 ft 424 kts 264°
2026-05-07 17:25 35.94689 133.46164 35849 ft 423 kts 264°
2026-05-07 17:26 35.94443 133.38906 35863 ft 423 kts 264°
2026-05-07 17:26 35.94193 133.31646 35859 ft 423 kts 264°
2026-05-07 17:27 35.93939 133.24395 35852 ft 422 kts 264°
2026-05-07 17:27 35.93684 133.17214 35856 ft 422 kts 264°
2026-05-07 17:28 35.93422 133.09994 35853 ft 421 kts 264°
2026-05-07 17:28 35.93157 133.02786 35856 ft 420 kts 264°
2026-05-07 17:29 35.92887 132.95570 35858 ft 420 kts 264°
2026-05-07 17:29 35.92615 132.88407 35854 ft 420 kts 264°
2026-05-07 17:30 35.92337 132.81206 35853 ft 420 kts 264°
2026-05-07 17:30 35.92055 132.74003 35830 ft 420 kts 264°
2026-05-07 17:31 35.91768 132.66800 35846 ft 420 kts 264°
2026-05-07 17:31 35.91477 132.59596 35875 ft 421 kts 263°
2026-05-07 17:32 35.91181 132.52379 35853 ft 421 kts 263°
2026-05-07 17:32 35.90932 132.46382 35855 ft 421 kts 263°
2026-05-07 17:33 35.90576 132.37937 35873 ft 421 kts 263°
2026-05-07 17:33 35.90267 132.30719 35851 ft 421 kts 263°
2026-05-07 17:34 35.89954 132.23493 35852 ft 421 kts 263°
2026-05-07 17:34 35.89639 132.16338 35867 ft 420 kts 263°
2026-05-07 17:35 35.89318 132.09141 35855 ft 420 kts 263°
2026-05-07 17:35 35.88993 132.01944 35851 ft 420 kts 263°
2026-05-07 17:36 35.88664 131.94764 35848 ft 419 kts 263°
2026-05-07 17:36 35.88331 131.87587 35852 ft 418 kts 263°
2026-05-07 17:37 35.87996 131.80458 35860 ft 418 kts 263°
2026-05-07 17:37 35.87655 131.73298 35866 ft 419 kts 263°
2026-05-07 17:38 35.87309 131.66126 35859 ft 419 kts 263°
2026-05-07 17:38 35.86960 131.58961 35851 ft 419 kts 263°
2026-05-07 17:39 35.86606 131.51801 35858 ft 418 kts 263°
2026-05-07 17:39 35.86248 131.44633 35860 ft 419 kts 263°
2026-05-07 17:40 35.85886 131.37480 35856 ft 419 kts 263°
2026-05-07 17:40 35.85522 131.30356 35870 ft 419 kts 263°
2026-05-07 17:41 35.85150 131.23181 35858 ft 419 kts 263°
2026-05-07 17:41 35.84775 131.16011 35839 ft 419 kts 263°
2026-05-07 17:42 35.84395 131.08837 35858 ft 419 kts 263°
2026-05-07 17:42 35.84011 131.01668 35859 ft 419 kts 263°
2026-05-07 17:43 35.83623 130.94500 35851 ft 419 kts 263°
2026-05-07 17:43 35.83233 130.87376 35862 ft 419 kts 263°
2026-05-07 17:44 35.82838 130.80209 35857 ft 419 kts 262°
2026-05-07 17:44 35.82607 130.73024 35859 ft 421 kts 268°
2026-05-07 17:45 35.83196 130.65813 35864 ft 425 kts 274°
2026-05-07 17:45 35.84135 130.58621 35859 ft 425 kts 274°
2026-05-07 17:46 35.85058 130.51465 35852 ft 425 kts 274°
2026-05-07 17:46 35.85971 130.44266 35867 ft 425 kts 274°
2026-05-07 17:47 35.86875 130.37063 35855 ft 425 kts 274°
2026-05-07 17:47 35.87774 130.29864 35872 ft 424 kts 274°
2026-05-07 17:48 35.88668 130.22664 35874 ft 424 kts 274°
2026-05-07 17:48 35.89557 130.15473 35858 ft 424 kts 274°
2026-05-07 17:49 35.90442 130.08283 35856 ft 423 kts 274°
2026-05-07 17:49 35.91316 130.01140 35884 ft 423 kts 274°
2026-05-07 17:50 35.92190 129.93960 35861 ft 423 kts 274°
2026-05-07 17:50 35.93061 129.86777 35864 ft 423 kts 274°
2026-05-07 17:51 35.93919 129.79644 35897 ft 423 kts 274°
2026-05-07 17:51 35.94770 129.72467 35875 ft 422 kts 274°
2026-05-07 17:52 35.95617 129.65290 35867 ft 422 kts 274°
2026-05-07 17:52 35.96452 129.58123 35856 ft 421 kts 273°
2026-05-07 17:53 35.97264 129.52198 35866 ft 424 kts 279°
2026-05-07 17:53 35.99379 129.45331 35880 ft 431 kts 288°
2026-05-07 17:54 36.03097 129.37912 35882 ft 440 kts 298°
2026-05-07 17:54 36.06094 129.32824 35883 ft 440 kts 298°
2026-05-07 17:55 36.09690 129.26683 35891 ft 440 kts 297°
2026-05-07 17:55 36.13242 129.20531 35887 ft 439 kts 297°
2026-05-07 17:56 36.16780 129.14359 35891 ft 439 kts 297°
2026-05-07 17:56 36.20315 129.08184 35906 ft 440 kts 297°
2026-05-07 17:57 36.23825 129.02040 35903 ft 440 kts 297°
2026-05-07 17:57 36.27361 128.95843 35904 ft 439 kts 297°
2026-05-07 17:58 36.30884 128.89659 35906 ft 438 kts 297°
2026-05-07 17:58 36.34394 128.83482 35907 ft 436 kts 296°
2026-05-07 17:59 36.37882 128.77357 35906 ft 432 kts 296°
2026-05-07 17:59 36.41337 128.71277 35914 ft 429 kts 296°
2026-05-07 18:00 36.44746 128.65261 35954 ft 428 kts 296°
2026-05-07 18:00 36.48165 128.59217 35923 ft 426 kts 296°
2026-05-07 18:01 36.51567 128.53188 35918 ft 425 kts 296°
2026-05-07 18:01 36.54961 128.47168 35929 ft 424 kts 295°
2026-05-07 18:02 36.60010 128.38187 35914 ft 424 kts 295°
2026-05-07 18:03 36.63395 128.32156 35908 ft 425 kts 295°
2026-05-07 18:03 36.66799 128.26205 35785 ft 415 kts 296°
2026-05-07 18:03 36.68486 128.23267 35142 ft 415 kts 296°
2026-05-07 18:04 36.70159 128.20337 34419 ft 416 kts 295°
2026-05-07 18:04 36.71838 128.17389 33599 ft 419 kts 295°
2026-05-07 18:04 36.73528 128.14418 32634 ft 422 kts 295°
2026-05-07 18:04 36.75215 128.11454 31723 ft 425 kts 295°
2026-05-07 18:05 36.76935 128.08438 30873 ft 427 kts 295°
2026-05-07 18:05 36.78652 128.05424 30146 ft 426 kts 295°
2026-05-07 18:05 36.80366 128.02412 29377 ft 423 kts 295°
2026-05-07 18:05 36.82063 127.99427 28648 ft 420 kts 295°
2026-05-07 18:06 36.83748 127.96462 27973 ft 416 kts 295°
2026-05-07 18:06 36.85409 127.93531 27334 ft 411 kts 295°
2026-05-07 18:06 36.87042 127.90626 26705 ft 406 kts 295°
2026-05-07 18:06 36.88647 127.87749 26084 ft 401 kts 294°
2026-05-07 18:07 36.90241 127.84896 25468 ft 398 kts 294°
2026-05-07 18:07 36.91804 127.82104 24857 ft 396 kts 295°
2026-05-07 18:07 36.93380 127.79290 24248 ft 394 kts 295°
2026-05-07 18:07 36.94956 127.76493 23648 ft 393 kts 295°
2026-05-07 18:08 36.96528 127.73709 22966 ft 391 kts 295°
2026-05-07 18:08 36.98090 127.70945 22376 ft 387 kts 295°
2026-05-07 18:08 36.99638 127.68204 21779 ft 383 kts 295°
2026-05-07 18:08 37.01167 127.65493 21203 ft 379 kts 296°
2026-05-07 18:09 37.02675 127.62810 20656 ft 375 kts 296°
2026-05-07 18:09 37.04156 127.60150 20113 ft 372 kts 296°
2026-05-07 18:09 37.05629 127.57499 19567 ft 368 kts 296°
2026-05-07 18:09 37.07085 127.54878 19060 ft 365 kts 296°
2026-05-07 18:10 37.08525 127.52281 18522 ft 362 kts 297°
2026-05-07 18:10 37.09961 127.49690 17960 ft 360 kts 297°
2026-05-07 18:10 37.11365 127.47157 17426 ft 357 kts 298°
2026-05-07 18:10 37.12775 127.44613 16853 ft 354 kts 299°
2026-05-07 18:11 37.14175 127.42094 16330 ft 350 kts 299°
2026-05-07 18:11 37.15096 127.40439 15991 ft 348 kts 300°
2026-05-07 18:11 37.16935 127.37129 15314 ft 344 kts 300°
2026-05-07 18:11 37.18274 127.34670 14802 ft 335 kts 296°
2026-05-07 18:12 37.19186 127.32025 14324 ft 327 kts 283°
2026-05-07 18:12 37.19651 127.29257 13835 ft 323 kts 277°
2026-05-07 18:12 37.19730 127.26455 13278 ft 321 kts 266°
2026-05-07 18:12 37.19541 127.23678 12737 ft 318 kts 265°
2026-05-07 18:13 37.19344 127.20924 12261 ft 316 kts 266°
2026-05-07 18:13 37.19151 127.18193 11771 ft 313 kts 266°
2026-05-07 18:13 37.18964 127.15480 11303 ft 313 kts 266°
2026-05-07 18:13 37.18782 127.12790 10869 ft 314 kts 267°
2026-05-07 18:14 37.18598 127.10061 10757 ft 306 kts 267°
2026-05-07 18:14 37.18425 127.07476 10607 ft 296 kts 267°
2026-05-07 18:14 37.18257 127.04959 10468 ft 283 kts 267°
2026-05-07 18:14 37.18096 127.02546 10350 ft 271 kts 267°
2026-05-07 18:15 37.17943 127.00255 10260 ft 258 kts 268°
2026-05-07 18:15 37.17796 126.98053 10131 ft 246 kts 268°
2026-05-07 18:15 37.17656 126.95962 10049 ft 237 kts 268°
2026-05-07 18:15 37.17520 126.93911 9931 ft 238 kts 268°
2026-05-07 18:16 37.17383 126.91815 9604 ft 241 kts 268°
2026-05-07 18:16 37.17245 126.89760 9295 ft 237 kts 269°
2026-05-07 18:16 37.17108 126.87727 9005 ft 231 kts 269°
2026-05-07 18:16 37.16974 126.85728 8725 ft 229 kts 269°
2026-05-07 18:17 37.16840 126.83732 8499 ft 232 kts 269°
2026-05-07 18:17 37.16703 126.81678 8216 ft 241 kts 269°
2026-05-07 18:17 37.16560 126.79565 7917 ft 245 kts 269°
2026-05-07 18:17 37.16415 126.77449 7597 ft 242 kts 269°
2026-05-07 18:18 37.16272 126.75364 7303 ft 238 kts 270°
2026-05-07 18:18 37.16449 126.73376 7009 ft 230 kts 295°
2026-05-07 18:18 37.17300 126.71664 6722 ft 233 kts 312°
2026-05-07 18:18 37.18532 126.70343 6384 ft 235 kts 323°
2026-05-07 18:19 37.19860 126.69180 6046 ft 236 kts 325°
2026-05-07 18:19 37.21222 126.68054 5717 ft 232 kts 326°
2026-05-07 18:19 37.22553 126.66930 5389 ft 229 kts 325°
2026-05-07 18:19 37.23840 126.65813 5101 ft 223 kts 325°
2026-05-07 18:20 37.25070 126.64731 5044 ft 209 kts 324°
2026-05-07 18:20 37.26232 126.63702 4995 ft 202 kts 324°
2026-05-07 18:20 37.27379 126.62686 5000 ft 203 kts 325°
2026-05-07 18:20 37.28551 126.61647 4821 ft 209 kts 324°
2026-05-07 18:21 37.29727 126.60604 4567 ft 209 kts 325°
2026-05-07 18:21 37.30901 126.59563 4232 ft 205 kts 325°
2026-05-07 18:21 37.32065 126.58531 3845 ft 205 kts 325°
2026-05-07 18:21 37.33230 126.57496 3435 ft 205 kts 325°
2026-05-07 18:22 37.34393 126.56464 3073 ft 203 kts 326°
2026-05-07 18:22 37.35152 126.55790 2818 ft 202 kts 326°
2026-05-07 18:22 37.36623 126.54482 2661 ft 185 kts 326°
2026-05-07 18:22 37.37651 126.53568 2303 ft 176 kts 326°
2026-05-07 18:23 37.38625 126.52703 1823 ft 168 kts 325°
2026-05-07 18:23 37.39535 126.51893 1525 ft 154 kts 326°
2026-05-07 18:23 37.40362 126.51159 1311 ft 137 kts 324°
2026-05-07 18:23 37.41096 126.50505 1124 ft 124 kts 323°
2026-05-07 18:24 37.41770 126.49904 984 ft 116 kts 322°
2026-05-07 18:24 37.42451 126.49300 826 ft 122 kts 323°
2026-05-07 18:24 37.43147 126.48679 634 ft 126 kts 324°
2026-05-07 18:24 37.43875 126.48042 475 ft 127 kts 323°
2026-05-07 18:25 37.44594 126.47410 295 ft 127 kts 323°
2026-05-07 18:25 37.45299 126.46771 160 ft 126 kts 323°
2026-05-07 18:25 37.45998 126.46151 32 ft 119 kts 323°
2026-05-07 18:25 37.46586 126.45624 28 ft 83 kts 324°
2026-05-07 18:26 37.46940 126.45306 27 ft 51 kts 324°
2026-05-07 18:26 37.47210 126.45069 29 ft 44 kts 326°
2026-05-07 18:26 37.47438 126.44864 26 ft 32 kts 324°
2026-05-07 18:26 37.47589 126.44732 25 ft 24 kts 330°
2026-05-07 18:27 37.47751 126.44686 27 ft 24 kts 353°
2026-05-07 18:27 37.47859 126.44672 28 ft 13 kts 354°
2026-05-07 18:27 37.47896 126.44750 28 ft 13 kts 112°
2026-05-07 18:27 37.47832 126.44829 27 ft 13 kts 144°
2026-05-07 18:28 37.47758 126.44897 27 ft 13 kts 145°
2026-05-07 18:28 37.47682 126.44964 27 ft 13 kts 145°
2026-05-07 18:28 37.47606 126.45030 26 ft 13 kts 145°
2026-05-07 18:28 37.47531 126.45097 27 ft 13 kts 145°
2026-05-07 18:29 37.47455 126.45161 28 ft 13 kts 147°
2026-05-07 18:29 37.47355 126.45247 28 ft 22 kts 142°
2026-05-07 18:29 37.47247 126.45346 28 ft 11 kts 145°
2026-05-07 18:29 37.47184 126.45402 28 ft 12 kts 144°
2026-05-07 18:30 37.47119 126.45462 27 ft 12 kts 135°
2026-05-07 18:30 37.47120 126.45558 27 ft 12 kts 65°
2026-05-07 18:30 37.47165 126.45644 27 ft 12 kts 54°
2026-05-07 18:30 37.47212 126.45727 27 ft 12 kts 55°
2026-05-07 18:31 37.47229 126.45787 27 ft 7 kts 110°
2026-05-07 18:31 37.47193 126.45830 27 ft 7 kts 139°
2026-05-07 18:31 37.47172 126.45851 27 ft 0 kts 140°